Observation data for Stamford on 06/20/2019      Previous  Date  Next       Current Mesonet Observations  Soil Data  Daily Summary Page  Observations in Plain Language
KST2 200500Z 15005KT 24/19 A2979 RMK A01 T02360193  RH  077%=      5-min Rain = 0
KST2 200501Z 15005KT 24/19 A2979 RMK A01 T02360193  RH  077%=      5-min Rain = 0
KST2 200502Z 16005KT 24/19 A2979 RMK A01 T02350192  RH  076%=      5-min Rain = 0
KST2 200503Z 16006KT 24/19 A2979 RMK A01 T02350191  RH  076%=      5-min Rain = 0
KST2 200504Z 16006KT 24/19 A2979 RMK A01 T02360191  RH  076%=      5-min Rain = 0
KST2 200505Z 16005KT 24/19 A2979 RMK A01 T02350190  RH  076%=      5-min Rain = 0
KST2 200506Z 17006KT 24/19 A2979 RMK A01 T02350191  RH  076%=      5-min Rain = 0
KST2 200507Z 17007KT 24/19 A2979 RMK A01 T02350190  RH  076%=      5-min Rain = 0
KST2 200508Z 17007KT 24/19 A2979 RMK A01 T02350189  RH  075%=      5-min Rain = 0
KST2 200509Z 17008KT 24/19 A2979 RMK A01 T02350187  RH  075%=      5-min Rain = 0
KST2 200510Z 18007KT 24/19 A2979 RMK A01 T02350187  RH  074%=      5-min Rain = 0
KST2 200511Z 17007KT 24/19 A2979 RMK A01 T02350187  RH  074%=      5-min Rain = 0
KST2 200512Z 17007KT 24/19 A2979 RMK A01 T02360187  RH  074%=      5-min Rain = 0
KST2 200513Z 17006KT 24/19 A2979 RMK A01 T02360188  RH  074%=      5-min Rain = 0
KST2 200514Z 17005KT 24/19 A2979 RMK A01 T02350187  RH  074%=      5-min Rain = 0
KST2 200515Z 16005KT 24/19 A2979 RMK A01 T02350188  RH  075%=      5-min Rain = 0
KST2 200516Z 16004KT 24/19 A2979 RMK A01 T02350187  RH  075%=      5-min Rain = 0
KST2 200517Z 16004KT 23/19 A2979 RMK A01 T02340186  RH  074%=      5-min Rain = 0
KST2 200518Z 16004KT 23/19 A2979 RMK A01 T02340186  RH  074%=      5-min Rain = 0
KST2 200519Z 16004KT 23/19 A2979 RMK A01 T02330185  RH  074%=      5-min Rain = 0
KST2 200520Z 17005KT 23/19 A2979 RMK A01 T02330186  RH  074%=      5-min Rain = 0
KST2 200521Z 17005KT 23/19 A2979 RMK A01 T02330185  RH  074%=      5-min Rain = 0
KST2 200522Z 17005KT 23/19 A2979 RMK A01 T02330185  RH  074%=      5-min Rain = 0
KST2 200523Z 18006KT 23/19 A2979 RMK A01 T02330185  RH  074%=      5-min Rain = 0
KST2 200524Z 18006KT 23/19 A2979 RMK A01 T02330185  RH  074%=      5-min Rain = 0
KST2 200525Z 18006KT 23/18 A2979 RMK A01 T02330184  RH  074%=      5-min Rain = 0
KST2 200526Z 18006KT 23/18 A2979 RMK A01 T02330183  RH  073%=      5-min Rain = 0
KST2 200527Z 18006KT 23/18 A2979 RMK A01 T02330182  RH  073%=      5-min Rain = 0
KST2 200528Z 18005KT 23/18 A2979 RMK A01 T02330183  RH  073%=      5-min Rain = 0
KST2 200529Z 18006KT 23/18 A2979 RMK A01 T02330183  RH  073%=      5-min Rain = 0
KST2 200530Z 18005KT 23/18 A2979 RMK A01 T02330183  RH  073%=      5-min Rain = 0
KST2 200531Z 18006KT 23/18 A2979 RMK A01 T02330184  RH  074%=      5-min Rain = 0
KST2 200532Z 19006KT 23/18 A2979 RMK A01 T02330184  RH  074%=      5-min Rain = 0
KST2 200533Z 18006KT 23/19 A2979 RMK A01 T02330185  RH  074%=      5-min Rain = 0
KST2 200534Z 18006KT 23/19 A2979 RMK A01 T02330185  RH  074%=      5-min Rain = 0
KST2 200535Z 18006KT 23/19 A2979 RMK A01 T02330186  RH  075%=      5-min Rain = 0
KST2 200536Z 17006KT 23/19 A2979 RMK A01 T02320186  RH  075%=      5-min Rain = 0
KST2 200537Z 17006KT 23/19 A2979 RMK A01 T02320187  RH  076%=      5-min Rain = 0
KST2 200538Z 17006KT 23/19 A2979 RMK A01 T02310187  RH  076%=      5-min Rain = 0
KST2 200539Z 17006KT 23/19 A298 RMK A01 T02300186  RH  076%=      5-min Rain = 0
KST2 200540Z 16005KT 23/19 A298 RMK A01 T02300187  RH  077%=      5-min Rain = 0
KST2 200541Z 15005KT 23/19 A298 RMK A01 T02300187  RH  077%=      5-min Rain = 0
KST2 200542Z 15005KT 23/19 A298 RMK A01 T02290187  RH  077%=      5-min Rain = 0
KST2 200543Z 15005KT 23/19 A298 RMK A01 T02280186  RH  077%=      5-min Rain = 0
KST2 200544Z 14005KT 23/19 A298 RMK A01 T02280186  RH  078%=      5-min Rain = 0
KST2 200545Z 14005KT 23/19 A298 RMK A01 T02270186  RH  078%=      5-min Rain = 0
KST2 200546Z 15005KT 23/19 A298 RMK A01 T02270185  RH  077%=      5-min Rain = 0
KST2 200547Z 15006KT 23/19 A2979 RMK A01 T02270185  RH  077%=      5-min Rain = 0
KST2 200548Z 15007KT 23/18 A2979 RMK A01 T02260184  RH  077%=      5-min Rain = 0
KST2 200549Z 16006KT 23/18 A2979 RMK A01 T02260183  RH  077%=      5-min Rain = 0
KST2 200550Z 16007KT 23/18 A2979 RMK A01 T02260184  RH  077%=      5-min Rain = 0
KST2 200551Z 16006KT 23/18 A298 RMK A01 T02260183  RH  077%=      5-min Rain = 0
KST2 200552Z 15006KT 23/18 A298 RMK A01 T02260184  RH  077%=      5-min Rain = 0
KST2 200553Z 15006KT 23/18 A298 RMK A01 T02250183  RH  077%=      5-min Rain = 0
KST2 200554Z 15005KT 23/18 A298 RMK A01 T02250183  RH  077%=      5-min Rain = 0
KST2 200555Z 15006KT 22/18 A298 RMK A01 T02240182  RH  077%=      5-min Rain = 0
KST2 200556Z 15006KT 22/18 A298 RMK A01 T02240181  RH  077%=      5-min Rain = 0
KST2 200557Z 16005KT 22/18 A298 RMK A01 T02240181  RH  077%=      5-min Rain = 0
KST2 200558Z 15006KT 22/18 A298 RMK A01 T02240182  RH  077%=      5-min Rain = 0
KST2 200559Z 14005KT 22/18 A298 RMK A01 T02240183  RH  078%=      5-min Rain = 0
KST2 200600Z 14005KT 22/18 A2979 RMK A01 T02240184  RH  078%=      5-min Rain = 0
KST2 200601Z 14005KT 22/18 A2979 RMK A01 T02230183  RH  078%=      5-min Rain = 0
KST2 200602Z 14005KT 22/18 A2979 RMK A01 T02230182  RH  078%=      5-min Rain = 0
KST2 200603Z 14005KT 22/18 A2979 RMK A01 T02220182  RH  078%=      5-min Rain = 0
KST2 200604Z 14005KT 22/18 A2979 RMK A01 T02220182  RH  078%=      5-min Rain = 0
KST2 200605Z 14004KT 22/18 A298 RMK A01 T02220182  RH  078%=      5-min Rain = 0
KST2 200606Z 14005KT 22/18 A298 RMK A01 T02220183  RH  079%=      5-min Rain = 0
KST2 200607Z 15004KT 22/18 A298 RMK A01 T02210182  RH  078%=      5-min Rain = 0
KST2 200608Z 15004KT 22/18 A298 RMK A01 T02210181  RH  078%=      5-min Rain = 0
KST2 200609Z 14004KT 22/18 A298 RMK A01 T02210182  RH  078%=      5-min Rain = 0
KST2 200610Z 14004KT 22/18 A298 RMK A01 T02210182  RH  079%=      5-min Rain = 0
KST2 200611Z 15005KT 22/18 A298 RMK A01 T02210181  RH  078%=      5-min Rain = 0
KST2 200612Z 15005KT 22/18 A298 RMK A01 T02210180  RH  078%=      5-min Rain = 0
KST2 200613Z 15005KT 22/18 A298 RMK A01 T02200179  RH  077%=      5-min Rain = 0
KST2 200614Z 15005KT 22/18 A298 RMK A01 T02210179  RH  077%=      5-min Rain = 0
KST2 200615Z 15004KT 22/18 A298 RMK A01 T02210180  RH  078%=      5-min Rain = 0
KST2 200616Z 16004KT 22/18 A298 RMK A01 T02210180  RH  078%=      5-min Rain = 0
KST2 200617Z 17005KT 22/18 A298 RMK A01 T02210180  RH  078%=      5-min Rain = 0
KST2 200618Z 17004KT 22/18 A298 RMK A01 T02210179  RH  077%=      5-min Rain = 0
KST2 200619Z 17004KT 22/18 A298 RMK A01 T02210180  RH  077%=      5-min Rain = 0
KST2 200620Z 17003KT 22/18 A298 RMK A01 T02210180  RH  077%=      5-min Rain = 0
KST2 200621Z 17002KT 22/18 A298 RMK A01 T02210180  RH  078%=      5-min Rain = 0
KST2 200622Z 17002KT 22/18 A298 RMK A01 T02220181  RH  078%=      5-min Rain = 0
KST2 200623Z 15001KT 22/18 A298 RMK A01 T02220182  RH  078%=      5-min Rain = 0
KST2 200624Z 14001KT 22/18 A2979 RMK A01 T02220182  RH  078%=      5-min Rain = 0
KST2 200625Z 13000KT 22/18 A2979 RMK A01 T02220183  RH  078%=      5-min Rain = 0
KST2 200626Z 11001KT 22/18 A2979 RMK A01 T02220182  RH  078%=      5-min Rain = 0
KST2 200627Z 09001KT 22/18 A2979 RMK A01 T02220182  RH  078%=      5-min Rain = 0
KST2 200628Z 09001KT 22/18 A2979 RMK A01 T02210183  RH  079%=      5-min Rain = 0
KST2 200629Z 09001KT 22/18 A2979 RMK A01 T02210183  RH  079%=      5-min Rain = 0
KST2 200630Z 08001KT 22/18 A2979 RMK A01 T02200182  RH  079%=      5-min Rain = 0
KST2 200631Z 08002KT 22/18 A2979 RMK A01 T02200182  RH  079%=      5-min Rain = 0
KST2 200632Z 08002KT 22/18 A2979 RMK A01 T02190183  RH  080%=      5-min Rain = 0
KST2 200633Z 08002KT 22/18 A2979 RMK A01 T02190183  RH  080%=      5-min Rain = 0
KST2 200634Z 08002KT 22/18 A2979 RMK A01 T02190183  RH  080%=      5-min Rain = 0
KST2 200635Z 10001KT 22/18 A2979 RMK A01 T02180182  RH  080%=      5-min Rain = 0
KST2 200636Z 12002KT 22/18 A2979 RMK A01 T02180181  RH  080%=      5-min Rain = 0
KST2 200637Z 12001KT 22/18 A2979 RMK A01 T02180182  RH  080%=      5-min Rain = 0
KST2 200638Z 10001KT 22/18 A2979 RMK A01 T02180182  RH  080%=      5-min Rain = 0
KST2 200639Z 07002KT 22/18 A2979 RMK A01 T02180182  RH  080%=      5-min Rain = 0
KST2 200640Z 05002KT 22/18 A2979 RMK A01 T02190183  RH  080%=      5-min Rain = 0
KST2 200641Z 06002KT 22/18 A2979 RMK A01 T02190184  RH  081%=      5-min Rain = 0
KST2 200642Z 13001KT 22/19 A2979 RMK A01 T02190185  RH  081%=      5-min Rain = 0
KST2 200643Z 17002KT 22/19 A2979 RMK A01 T02190187  RH  082%=      5-min Rain = 0
KST2 200644Z 17002KT 22/19 A2979 RMK A01 T02190187  RH  082%=      5-min Rain = 0
KST2 200645Z 16002KT 22/19 A2979 RMK A01 T02200186  RH  081%=      5-min Rain = 0
KST2 200646Z 16003KT 22/19 A2979 RMK A01 T02200187  RH  082%=      5-min Rain = 0
KST2 200647Z 16004KT 22/18 A2979 RMK A01 T02200184  RH  080%=      5-min Rain = 0
KST2 200648Z 16004KT 22/18 A2979 RMK A01 T02190181  RH  079%=      5-min Rain = 0
KST2 200649Z 17005KT 22/18 A2979 RMK A01 T02190184  RH  080%=      5-min Rain = 0
KST2 200650Z 17007KT 22/18 A2979 RMK A01 T02190184  RH  081%=      5-min Rain = 0
KST2 200651Z 17006KT 22/18 A2979 RMK A01 T02190184  RH  080%=      5-min Rain = 0
KST2 200652Z 17006KT 22/18 A2979 RMK A01 T02190184  RH  080%=      5-min Rain = 0
KST2 200653Z 17004KT 22/18 A2979 RMK A01 T02190184  RH  081%=      5-min Rain = 0
KST2 200654Z 16003KT 22/18 A2979 RMK A01 T02190184  RH  081%=      5-min Rain = 0
KST2 200655Z 15003KT 22/19 A2979 RMK A01 T02190185  RH  081%=      5-min Rain = 0
KST2 200656Z 15003KT 22/19 A2979 RMK A01 T02190185  RH  081%=      5-min Rain = 0
KST2 200657Z 16004KT 22/19 A2979 RMK A01 T02190185  RH  081%=      5-min Rain = 0
KST2 200658Z 16004KT 22/19 A2979 RMK A01 T02180186  RH  082%=      5-min Rain = 0
KST2 200659Z 15005KT 22/19 A2979 RMK A01 T02180187  RH  082%=      5-min Rain = 0
KST2 200700Z 15005KT 22/19 A2979 RMK A01 T02180187  RH  083%=      5-min Rain = 0
KST2 200701Z 14005KT 22/19 A2979 RMK A01 T02180188  RH  083%=      5-min Rain = 0
KST2 200702Z 14005KT 22/19 A2979 RMK A01 T02170188  RH  083%=      5-min Rain = 0
KST2 200703Z 14005KT 22/19 A2979 RMK A01 T02170188  RH  083%=      5-min Rain = 0
KST2 200704Z 14005KT 22/19 A2979 RMK A01 T02170188  RH  083%=      5-min Rain = 0
KST2 200705Z 14005KT 22/19 A2979 RMK A01 T02160186  RH  083%=      5-min Rain = 0
KST2 200706Z 15005KT 22/19 A2979 RMK A01 T02160186  RH  083%=      5-min Rain = 0
KST2 200707Z 14006KT 22/19 A2979 RMK A01 T02170185  RH  082%=      5-min Rain = 0
KST2 200708Z 14007KT 22/19 A2979 RMK A01 T02160186  RH  083%=      5-min Rain = 0
KST2 200709Z 15006KT 22/19 A2979 RMK A01 T02160185  RH  083%=      5-min Rain = 0
KST2 200710Z 16005KT 22/18 A2979 RMK A01 T02150184  RH  082%=      5-min Rain = 0
KST2 200711Z 14007KT 22/18 A2979 RMK A01 T02150183  RH  082%=      5-min Rain = 0
KST2 200712Z 14007KT 22/18 A2979 RMK A01 T02150183  RH  082%=      5-min Rain = 0
KST2 200713Z 15007KT 22/18 A2979 RMK A01 T02160184  RH  082%=      5-min Rain = 0
KST2 200714Z 16006KT 22/18 A2979 RMK A01 T02150182  RH  082%=      5-min Rain = 0
KST2 200715Z 16006KT 22/18 A2979 RMK A01 T02160182  RH  081%=      5-min Rain = 0
KST2 200716Z 16007KT 22/18 A2979 RMK A01 T02150182  RH  081%=      5-min Rain = 0
KST2 200717Z 16009KT 22/18 A2979 RMK A01 T02150183  RH  082%=      5-min Rain = 0
KST2 200718Z 18009KT 22/18 A2979 RMK A01 T02150182  RH  081%=      5-min Rain = 0
KST2 200719Z 19008KT 22/18 A2978 RMK A01 T02160181  RH  081%=      5-min Rain = 0
KST2 200720Z 18007KT 22/18 A2978 RMK A01 T02150180  RH  080%=      5-min Rain = 0
KST2 200721Z 17007KT 22/18 A2978 RMK A01 T02160180  RH  080%=      5-min Rain = 0
KST2 200722Z 16007KT 22/18 A2979 RMK A01 T02160180  RH  080%=      5-min Rain = 0
KST2 200723Z 14007KT 22/18 A2979 RMK A01 T02170181  RH  080%=      5-min Rain = 0
KST2 200724Z 13007KT 22/18 A2979 RMK A01 T02170181  RH  080%=      5-min Rain = 0
KST2 200725Z 15005KT 22/18 A2979 RMK A01 T02160181  RH  080%=      5-min Rain = 0
KST2 200726Z 15006KT 22/18 A2979 RMK A01 T02160182  RH  081%=      5-min Rain = 0
KST2 200727Z 16005KT 22/18 A2978 RMK A01 T02160181  RH  081%=      5-min Rain = 0
KST2 200728Z 17005KT 22/18 A2978 RMK A01 T02160181  RH  081%=      5-min Rain = 0
KST2 200729Z 17006KT 22/18 A2978 RMK A01 T02150181  RH  081%=      5-min Rain = 0
KST2 200730Z 16006KT 22/18 A2978 RMK A01 T02150181  RH  081%=      5-min Rain = 0
KST2 200731Z 15005KT 22/18 A2978 RMK A01 T02150181  RH  081%=      5-min Rain = 0
KST2 200732Z 14006KT 22/18 A2979 RMK A01 T02150182  RH  081%=      5-min Rain = 0
KST2 200733Z 15005KT 21/18 A2979 RMK A01 T02140181  RH  082%=      5-min Rain = 0
KST2 200734Z 16005KT 21/18 A2978 RMK A01 T02140182  RH  082%=      5-min Rain = 0
KST2 200735Z 17005KT 21/18 A2978 RMK A01 T02140182  RH  082%=      5-min Rain = 0
KST2 200736Z 16005KT 21/18 A2978 RMK A01 T02140182  RH  082%=      5-min Rain = 0
KST2 200737Z 16005KT 21/18 A2978 RMK A01 T02130182  RH  082%=      5-min Rain = 0
KST2 200738Z 15004KT 21/18 A2978 RMK A01 T02130182  RH  083%=      5-min Rain = 0
KST2 200739Z 14004KT 21/18 A2978 RMK A01 T02130183  RH  083%=      5-min Rain = 0
KST2 200740Z 14003KT 21/18 A2978 RMK A01 T02130183  RH  083%=      5-min Rain = 0
KST2 200741Z 15004KT 21/18 A2978 RMK A01 T02120182  RH  083%=      5-min Rain = 0
KST2 200742Z 16005KT 21/18 A2978 RMK A01 T02120182  RH  083%=      5-min Rain = 0
KST2 200743Z 17004KT 21/18 A2978 RMK A01 T02120182  RH  083%=      5-min Rain = 0
KST2 200744Z 15004KT 21/18 A2978 RMK A01 T02120182  RH  083%=      5-min Rain = 0
KST2 200745Z 14005KT 21/18 A2978 RMK A01 T02120182  RH  083%=      5-min Rain = 0
KST2 200746Z 15005KT 21/18 A2978 RMK A01 T02120183  RH  084%=      5-min Rain = 0
KST2 200747Z 16004KT 21/18 A2978 RMK A01 T02120183  RH  084%=      5-min Rain = 0
KST2 200748Z 16004KT 21/18 A2978 RMK A01 T02120183  RH  084%=      5-min Rain = 0
KST2 200749Z 16004KT 21/18 A2978 RMK A01 T02120183  RH  084%=      5-min Rain = 0
KST2 200750Z 17004KT 21/18 A2978 RMK A01 T02120182  RH  083%=      5-min Rain = 0
KST2 200751Z 15004KT 21/18 A2978 RMK A01 T02120182  RH  083%=      5-min Rain = 0
KST2 200752Z 13004KT 21/18 A2978 RMK A01 T02120183  RH  083%=      5-min Rain = 0
KST2 200753Z 14004KT 21/18 A2978 RMK A01 T02120184  RH  084%=      5-min Rain = 0
KST2 200754Z 16004KT 21/18 A2978 RMK A01 T02120184  RH  084%=      5-min Rain = 0
KST2 200755Z 18004KT 21/18 A2978 RMK A01 T02120184  RH  084%=      5-min Rain = 0
KST2 200756Z 18004KT 21/18 A2978 RMK A01 T02120184  RH  084%=      5-min Rain = 0
KST2 200757Z 17005KT 21/18 A2978 RMK A01 T02120183  RH  084%=      5-min Rain = 0
KST2 200758Z 17005KT 21/18 A2978 RMK A01 T02120182  RH  083%=      5-min Rain = 0
KST2 200759Z 16005KT 21/18 A2978 RMK A01 T02120182  RH  083%=      5-min Rain = 0
KST2 200800Z 16004KT 21/18 A2978 RMK A01 T02130182  RH  083%=      5-min Rain = 0
KST2 200801Z 17005KT 21/18 A2978 RMK A01 T02130182  RH  083%=      5-min Rain = 0
KST2 200802Z 17005KT 21/18 A2978 RMK A01 T02130182  RH  083%=      5-min Rain = 0
KST2 200803Z 16004KT 21/18 A2978 RMK A01 T02130181  RH  082%=      5-min Rain = 0
KST2 200804Z 16004KT 21/18 A2978 RMK A01 T02130182  RH  083%=      5-min Rain = 0
KST2 200805Z 15004KT 21/18 A2978 RMK A01 T02130183  RH  083%=      5-min Rain = 0
KST2 200806Z 14004KT 21/18 A2978 RMK A01 T02130183  RH  083%=      5-min Rain = 0
KST2 200807Z 14004KT 21/18 A2978 RMK A01 T02130183  RH  083%=      5-min Rain = 0
KST2 200808Z 13004KT 21/18 A2978 RMK A01 T02130184  RH  084%=      5-min Rain = 0
KST2 200809Z 13004KT 21/18 A2978 RMK A01 T02120183  RH  084%=      5-min Rain = 0
KST2 200810Z 13004KT 21/18 A2978 RMK A01 T02120182  RH  083%=      5-min Rain = 0
KST2 200811Z 14004KT 21/18 A2979 RMK A01 T02120182  RH  083%=      5-min Rain = 0
KST2 200812Z 14004KT 21/18 A2979 RMK A01 T02110181  RH  083%=      5-min Rain = 0
KST2 200813Z 13004KT 21/18 A2979 RMK A01 T02110181  RH  083%=      5-min Rain = 0
KST2 200814Z 13004KT 21/18 A2979 RMK A01 T02120181  RH  083%=      5-min Rain = 0
KST2 200815Z 13003KT 21/18 A2979 RMK A01 T02110181  RH  083%=      5-min Rain = 0
KST2 200816Z 13003KT 21/18 A2979 RMK A01 T02110181  RH  083%=      5-min Rain = 0
KST2 200817Z 13004KT 21/18 A2979 RMK A01 T02110182  RH  083%=      5-min Rain = 0
KST2 200818Z 11004KT 21/18 A2979 RMK A01 T02110182  RH  083%=      5-min Rain = 0
KST2 200819Z 11005KT 21/18 A2979 RMK A01 T02120183  RH  084%=      5-min Rain = 0
KST2 200820Z 11005KT 21/18 A2979 RMK A01 T02120184  RH  084%=      5-min Rain = 0
KST2 200821Z 11005KT 21/18 A2979 RMK A01 T02120184  RH  084%=      5-min Rain = 0
KST2 200822Z 12005KT 21/18 A2978 RMK A01 T02120184  RH  084%=      5-min Rain = 0
KST2 200823Z 12005KT 21/18 A2978 RMK A01 T02120184  RH  084%=      5-min Rain = 0
KST2 200824Z 12005KT 21/18 A2978 RMK A01 T02120184  RH  084%=      5-min Rain = 0
KST2 200825Z 12005KT 21/18 A2978 RMK A01 T02120184  RH  084%=      5-min Rain = 0
KST2 200826Z 12005KT 21/18 A2978 RMK A01 T02120183  RH  084%=      5-min Rain = 0
KST2 200827Z 13006KT 21/18 A2978 RMK A01 T02120183  RH  083%=      5-min Rain = 0
KST2 200828Z 12006KT 21/18 A2978 RMK A01 T02120182  RH  083%=      5-min Rain = 0
KST2 200829Z 13005KT 21/18 A2978 RMK A01 T02120182  RH  083%=      5-min Rain = 0
KST2 200830Z 13005KT 21/18 A2978 RMK A01 T02120182  RH  083%=      5-min Rain = 0
KST2 200831Z 13005KT 21/18 A2978 RMK A01 T02120182  RH  083%=      5-min Rain = 0
KST2 200832Z 13006KT 21/18 A2978 RMK A01 T02120181  RH  083%=      5-min Rain = 0
KST2 200833Z 13006KT 21/18 A2978 RMK A01 T02120181  RH  083%=      5-min Rain = 0
KST2 200834Z 13005KT 21/18 A2978 RMK A01 T02120181  RH  083%=      5-min Rain = 0
KST2 200835Z 13006KT 21/18 A2978 RMK A01 T02120181  RH  083%=      5-min Rain = 0
KST2 200836Z 13006KT 21/18 A2978 RMK A01 T02120180  RH  082%=      5-min Rain = 0
KST2 200837Z 13006KT 21/18 A2978 RMK A01 T02120180  RH  082%=      5-min Rain = 0
KST2 200838Z 13006KT 21/18 A2978 RMK A01 T02120179  RH  082%=      5-min Rain = 0
KST2 200839Z 13006KT 21/18 A2978 RMK A01 T02120179  RH  082%=      5-min Rain = 0
KST2 200840Z 13006KT 21/18 A2978 RMK A01 T02120180  RH  082%=      5-min Rain = 0
KST2 200841Z 13006KT 21/18 A2978 RMK A01 T02120179  RH  081%=      5-min Rain = 0
KST2 200842Z 13006KT 21/18 A2978 RMK A01 T02120178  RH  081%=      5-min Rain = 0
KST2 200843Z 13006KT 21/18 A2978 RMK A01 T02120179  RH  081%=      5-min Rain = 0
KST2 200844Z 13006KT 21/18 A2978 RMK A01 T02120179  RH  081%=      5-min Rain = 0
KST2 200845Z 13006KT 21/18 A2978 RMK A01 T02110178  RH  081%=      5-min Rain = 0
KST2 200846Z 13006KT 21/18 A2978 RMK A01 T02110179  RH  082%=      5-min Rain = 0
KST2 200847Z 14006KT 21/18 A2978 RMK A01 T02110179  RH  082%=      5-min Rain = 0
KST2 200848Z 13006KT 21/18 A2978 RMK A01 T02110179  RH  082%=      5-min Rain = 0
KST2 200849Z 14007KT 21/18 A2978 RMK A01 T02110180  RH  083%=      5-min Rain = 0
KST2 200850Z 14006KT 21/18 A2978 RMK A01 T02100180  RH  083%=      5-min Rain = 0
KST2 200851Z 14006KT 21/18 A2978 RMK A01 T02100179  RH  083%=      5-min Rain = 0
KST2 200852Z 14006KT 21/18 A2978 RMK A01 T02090179  RH  083%=      5-min Rain = 0
KST2 200853Z 14006KT 21/18 A2978 RMK A01 T02090180  RH  083%=      5-min Rain = 0
KST2 200854Z 15006KT 21/18 A2978 RMK A01 T02090180  RH  083%=      5-min Rain = 0
KST2 200855Z 15005KT 21/18 A2978 RMK A01 T02090180  RH  084%=      5-min Rain = 0
KST2 200856Z 14005KT 21/18 A2978 RMK A01 T02090180  RH  084%=      5-min Rain = 0
KST2 200857Z 14005KT 21/18 A2978 RMK A01 T02090180  RH  084%=      5-min Rain = 0
KST2 200858Z 15005KT 21/18 A2978 RMK A01 T02080180  RH  084%=      5-min Rain = 0
KST2 200859Z 14005KT 21/18 A2978 RMK A01 T02080180  RH  084%=      5-min Rain = 0
KST2 200900Z 14005KT 21/18 A2978 RMK A01 T02080181  RH  084%=      5-min Rain = 0
KST2 200901Z 14005KT 21/18 A2978 RMK A01 T02080181  RH  084%=      5-min Rain = 0
KST2 200902Z 14005KT 21/18 A2977 RMK A01 T02080181  RH  085%=      5-min Rain = 0
KST2 200903Z 15005KT 21/18 A2977 RMK A01 T02080181  RH  085%=      5-min Rain = 0
KST2 200904Z 15005KT 21/18 A2977 RMK A01 T02080181  RH  085%=      5-min Rain = 0
KST2 200905Z 15006KT 21/18 A2977 RMK A01 T02080181  RH  084%=      5-min Rain = 0
KST2 200906Z 15006KT 21/18 A2977 RMK A01 T02080181  RH  084%=      5-min Rain = 0
KST2 200907Z 15005KT 21/18 A2977 RMK A01 T02080180  RH  084%=      5-min Rain = 0
KST2 200908Z 16006KT 21/18 A2977 RMK A01 T02080180  RH  084%=      5-min Rain = 0
KST2 200909Z 16006KT 21/18 A2977 RMK A01 T02080181  RH  085%=      5-min Rain = 0
KST2 200910Z 15006KT 21/18 A2977 RMK A01 T02080181  RH  085%=      5-min Rain = 0
KST2 200911Z 16005KT 21/18 A2977 RMK A01 T02080181  RH  085%=      5-min Rain = 0
KST2 200912Z 16005KT 21/18 A2977 RMK A01 T02080182  RH  085%=      5-min Rain = 0
KST2 200913Z 16005KT 21/18 A2978 RMK A01 T02080182  RH  085%=      5-min Rain = 0
KST2 200914Z 16005KT 21/18 A2977 RMK A01 T02080182  RH  085%=      5-min Rain = 0
KST2 200915Z 15005KT 21/18 A2977 RMK A01 T02080182  RH  085%=      5-min Rain = 0
KST2 200916Z 15005KT 21/18 A2977 RMK A01 T02080182  RH  085%=      5-min Rain = 0
KST2 200917Z 15005KT 21/18 A2977 RMK A01 T02080182  RH  085%=      5-min Rain = 0
KST2 200918Z 16005KT 21/18 A2977 RMK A01 T02080182  RH  085%=      5-min Rain = 0
KST2 200919Z 16005KT 21/18 A2977 RMK A01 T02080181  RH  085%=      5-min Rain = 0
KST2 200920Z 16005KT 21/18 A2977 RMK A01 T02080181  RH  085%=      5-min Rain = 0
KST2 200921Z 15005KT 21/18 A2977 RMK A01 T02080181  RH  085%=      5-min Rain = 0
KST2 200922Z 15005KT 21/18 A2977 RMK A01 T02080182  RH  085%=      5-min Rain = 0
KST2 200923Z 15006KT 21/18 A2977 RMK A01 T02080181  RH  085%=      5-min Rain = 0
KST2 200924Z 15005KT 21/18 A2977 RMK A01 T02080182  RH  085%=      5-min Rain = 0
KST2 200925Z 15005KT 21/18 A2977 RMK A01 T02090182  RH  085%=      5-min Rain = 0
KST2 200926Z 15005KT 21/18 A2977 RMK A01 T02090182  RH  085%=      5-min Rain = 0
KST2 200927Z 15005KT 21/18 A2977 RMK A01 T02090182  RH  085%=      5-min Rain = 0
KST2 200928Z 15005KT 21/18 A2977 RMK A01 T02090182  RH  084%=      5-min Rain = 0
KST2 200929Z 14005KT 21/18 A2977 RMK A01 T02090182  RH  084%=      5-min Rain = 0
KST2 200930Z 15005KT 21/18 A2977 RMK A01 T02090181  RH  084%=      5-min Rain = 0
KST2 200931Z 15005KT 21/18 A2977 RMK A01 T02090182  RH  085%=      5-min Rain = 0
KST2 200932Z 15005KT 21/18 A2977 RMK A01 T02090182  RH  084%=      5-min Rain = 0
KST2 200933Z 15005KT 21/18 A2977 RMK A01 T02090182  RH  084%=      5-min Rain = 0
KST2 200934Z 15005KT 21/18 A2977 RMK A01 T02090182  RH  085%=      5-min Rain = 0
KST2 200935Z 15005KT 21/18 A2977 RMK A01 T02090182  RH  085%=      5-min Rain = 0
KST2 200936Z 15005KT 21/18 A2977 RMK A01 T02090182  RH  085%=      5-min Rain = 0
KST2 200937Z 15005KT 21/18 A2977 RMK A01 T02090182  RH  085%=      5-min Rain = 0
KST2 200938Z 14006KT 21/18 A2977 RMK A01 T02090182  RH  084%=      5-min Rain = 0
KST2 200939Z 14006KT 21/18 A2977 RMK A01 T02090182  RH  084%=      5-min Rain = 0
KST2 200940Z 14006KT 21/18 A2977 RMK A01 T02090182  RH  084%=      5-min Rain = 0
KST2 200941Z 14006KT 21/18 A2977 RMK A01 T02090182  RH  084%=      5-min Rain = 0
KST2 200942Z 14006KT 21/18 A2976 RMK A01 T02100182  RH  084%=      5-min Rain = 0
KST2 200943Z 14006KT 21/18 A2976 RMK A01 T02100182  RH  084%=      5-min Rain = 0
KST2 200944Z 14006KT 21/18 A2976 RMK A01 T02100182  RH  084%=      5-min Rain = 0
KST2 200945Z 14006KT 21/18 A2976 RMK A01 T02100182  RH  084%=      5-min Rain = 0
KST2 200946Z 14006KT 21/18 A2976 RMK A01 T02100182  RH  084%=      5-min Rain = 0
KST2 200947Z 14006KT 21/18 A2976 RMK A01 T02110182  RH  084%=      5-min Rain = 0
KST2 200948Z 14006KT 21/18 A2976 RMK A01 T02110181  RH  083%=      5-min Rain = 0
KST2 200949Z 14006KT 21/18 A2976 RMK A01 T02120181  RH  083%=      5-min Rain = 0
KST2 200950Z 14005KT 21/18 A2976 RMK A01 T02130181  RH  082%=      5-min Rain = 0
KST2 200951Z 13005KT 21/18 A2976 RMK A01 T02130180  RH  082%=      5-min Rain = 0
KST2 200952Z 13006KT 21/18 A2976 RMK A01 T02140181  RH  081%=      5-min Rain = 0
KST2 200953Z 13006KT 22/18 A2976 RMK A01 T02150180  RH  081%=      5-min Rain = 0
KST2 200954Z 13006KT 22/18 A2976 RMK A01 T02150180  RH  080%=      5-min Rain = 0
KST2 200955Z 13007KT 22/18 A2976 RMK A01 T02160181  RH  080%=      5-min Rain = 0
KST2 200956Z 13007KT 22/18 A2976 RMK A01 T02170181  RH  080%=      5-min Rain = 0
KST2 200957Z 14006KT 22/18 A2976 RMK A01 T02170179  RH  079%=      5-min Rain = 0
KST2 200958Z 14007KT 22/18 A2976 RMK A01 T02180179  RH  079%=      5-min Rain = 0
KST2 200959Z 14006KT 22/18 A2976 RMK A01 T02190179  RH  078%=      5-min Rain = 0
KST2 201000Z 14006KT 22/18 A2976 RMK A01 T02190181  RH  079%=      5-min Rain = 0
KST2 201001Z 14006KT 22/18 A2976 RMK A01 T02200181  RH  079%=      5-min Rain = 0
KST2 201002Z 14007KT 22/18 A2976 RMK A01 T02200180  RH  078%=      5-min Rain = 0
KST2 201003Z 14007KT 22/18 A2976 RMK A01 T02200181  RH  078%=      5-min Rain = 0
KST2 201004Z 14008KT 22/18 A2976 RMK A01 T02190181  RH  079%=      5-min Rain = 0
KST2 201005Z 14008KT 22/18 A2976 RMK A01 T02190181  RH  079%=      5-min Rain = 0
KST2 201006Z 13007KT 22/18 A2976 RMK A01 T02190181  RH  079%=      5-min Rain = 0
KST2 201007Z 14007KT 22/18 A2976 RMK A01 T02180180  RH  079%=      5-min Rain = 0
KST2 201008Z 14008KT 22/18 A2976 RMK A01 T02180181  RH  079%=      5-min Rain = 0
KST2 201009Z 14007KT 22/18 A2976 RMK A01 T02180179  RH  079%=      5-min Rain = 0
KST2 201010Z 15006KT 22/18 A2976 RMK A01 T02180179  RH  079%=      5-min Rain = 0
KST2 201011Z 15006KT 22/18 A2976 RMK A01 T02180180  RH  079%=      5-min Rain = 0
KST2 201012Z 15008KT 22/18 A2976 RMK A01 T02180180  RH  079%=      5-min Rain = 0
KST2 201013Z 15009KT 22/18 A2976 RMK A01 T02180180  RH  079%=      5-min Rain = 0
KST2 201014Z 15007KT 22/18 A2976 RMK A01 T02180180  RH  079%=      5-min Rain = 0
KST2 201015Z 15007KT 22/18 A2976 RMK A01 T02180180  RH  079%=      5-min Rain = 0
KST2 201016Z 16006KT 22/18 A2976 RMK A01 T02180180  RH  079%=      5-min Rain = 0
KST2 201017Z 16006KT 22/18 A2976 RMK A01 T02180180  RH  079%=      5-min Rain = 0
KST2 201018Z 16006KT 22/18 A2976 RMK A01 T02180181  RH  079%=      5-min Rain = 0
KST2 201019Z 15006KT 22/18 A2976 RMK A01 T02180180  RH  079%=      5-min Rain = 0
KST2 201020Z 15007KT 22/18 A2976 RMK A01 T02180180  RH  079%=      5-min Rain = 0
KST2 201021Z 16008KT 22/18 A2976 RMK A01 T02180180  RH  079%=      5-min Rain = 0
KST2 201022Z 16007KT 22/18 A2976 RMK A01 T02180180  RH  079%=      5-min Rain = 0
KST2 201023Z 15008KT 22/18 A2976 RMK A01 T02180180  RH  079%=      5-min Rain = 0
KST2 201024Z 15008KT 22/18 A2976 RMK A01 T02180181  RH  079%=      5-min Rain = 0
KST2 201025Z 16007KT 22/18 A2976 RMK A01 T02190181  RH  079%=      5-min Rain = 0
KST2 201026Z 16007KT 22/18 A2976 RMK A01 T02190181  RH  079%=      5-min Rain = 0
KST2 201027Z 16007KT 22/18 A2976 RMK A01 T02190181  RH  079%=      5-min Rain = 0
KST2 201028Z 16007KT 22/18 A2976 RMK A01 T02190181  RH  079%=      5-min Rain = 0
KST2 201029Z 16007KT 22/18 A2976 RMK A01 T02190181  RH  079%=      5-min Rain = 0
KST2 201030Z 17007KT 22/18 A2976 RMK A01 T02190181  RH  079%=      5-min Rain = 0
KST2 201031Z 16008KT 22/18 A2976 RMK A01 T02190181  RH  079%=      5-min Rain = 0
KST2 201032Z 17008KT 22/18 A2976 RMK A01 T02200181  RH  079%=      5-min Rain = 0
KST2 201033Z 16007KT 22/18 A2976 RMK A01 T02200181  RH  079%=      5-min Rain = 0
KST2 201034Z 16008KT 22/18 A2976 RMK A01 T02200181  RH  079%=      5-min Rain = 0
KST2 201035Z 16008KT 22/18 A2976 RMK A01 T02200182  RH  079%=      5-min Rain = 0
KST2 201036Z 16009KT 22/18 A2976 RMK A01 T02200182  RH  079%=      5-min Rain = 0
KST2 201037Z 16009KT 22/18 A2975 RMK A01 T02200182  RH  079%=      5-min Rain = 0
KST2 201038Z 16009KT 22/18 A2975 RMK A01 T02200182  RH  079%=      5-min Rain = 0
KST2 201039Z 16008KT 22/18 A2975 RMK A01 T02200183  RH  079%=      5-min Rain = 0
KST2 201040Z 16008KT 22/18 A2975 RMK A01 T02200183  RH  080%=      5-min Rain = 0
KST2 201041Z 16007KT 22/18 A2975 RMK A01 T02200183  RH  080%=      5-min Rain = 0
KST2 201042Z 16008KT 22/18 A2975 RMK A01 T02200184  RH  080%=      5-min Rain = 0
KST2 201043Z 16008KT 22/18 A2975 RMK A01 T02200184  RH  080%=      5-min Rain = 0
KST2 201044Z 16008KT 22/19 A2975 RMK A01 T02200185  RH  080%=      5-min Rain = 0
KST2 201045Z 17008KT 22/19 A2975 RMK A01 T02200185  RH  081%=      5-min Rain = 0
KST2 201046Z 16008KT 22/19 A2975 RMK A01 T02200185  RH  081%=      5-min Rain = 0
KST2 201047Z 16009KT 22/19 A2975 RMK A01 T02200186  RH  081%=      5-min Rain = 0
KST2 201048Z 16008KT 22/19 A2975 RMK A01 T02200186  RH  081%=      5-min Rain = 0
KST2 201049Z 16007KT 22/19 A2975 RMK A01 T02190186  RH  081%=      5-min Rain = 0
KST2 201050Z 16008KT 22/19 A2975 RMK A01 T02200186  RH  081%=      5-min Rain = 0
KST2 201051Z 16009KT 22/19 A2975 RMK A01 T02200186  RH  081%=      5-min Rain = 0
KST2 201052Z 16008KT 22/19 A2975 RMK A01 T02200186  RH  081%=      5-min Rain = 0
KST2 201053Z 17007KT 22/19 A2975 RMK A01 T02200187  RH  081%=      5-min Rain = 0
KST2 201054Z 17008KT 22/19 A2975 RMK A01 T02210187  RH  081%=      5-min Rain = 0
KST2 201055Z 17007KT 22/19 A2975 RMK A01 T02210188  RH  081%=      5-min Rain = 0
KST2 201056Z 17008KT 22/19 A2975 RMK A01 T02210188  RH  081%=      5-min Rain = 0
KST2 201057Z 17008KT 22/19 A2975 RMK A01 T02210188  RH  081%=      5-min Rain = 0
KST2 201058Z 18009KT 22/19 A2975 RMK A01 T02210188  RH  081%=      5-min Rain = 0
KST2 201059Z 18007KT 22/19 A2975 RMK A01 T02220189  RH  081%=      5-min Rain = 0
KST2 201100Z 18007KT 22/19 A2975 RMK A01 T02220189  RH  082%=      5-min Rain = 0
KST2 201101Z 17007KT 22/19 A2975 RMK A01 T02220189  RH  082%=      5-min Rain = 0
KST2 201102Z 17008KT 22/19 A2975 RMK A01 T02220190  RH  082%=      5-min Rain = 0
KST2 201103Z 17006KT 22/19 A2975 RMK A01 T02220190  RH  082%=      5-min Rain = 0
KST2 201104Z 17007KT 22/19 A2975 RMK A01 T02220190  RH  082%=      5-min Rain = 0
KST2 201105Z 17006KT 22/19 A2975 RMK A01 T02220191  RH  082%=      5-min Rain = 0
KST2 201106Z 17006KT 22/19 A2975 RMK A01 T02220191  RH  082%=      5-min Rain = 0
KST2 201107Z 17005KT 22/19 A2975 RMK A01 T02220191  RH  082%=      5-min Rain = 0
KST2 201108Z 17006KT 22/19 A2975 RMK A01 T02220191  RH  083%=      5-min Rain = 0
KST2 201109Z 17005KT 22/19 A2975 RMK A01 T02220191  RH  083%=      5-min Rain = 0
KST2 201110Z 17005KT 22/19 A2975 RMK A01 T02220191  RH  083%=      5-min Rain = 0
KST2 201111Z 17006KT 22/19 A2975 RMK A01 T02220191  RH  083%=      5-min Rain = 0
KST2 201112Z 17005KT 22/19 A2976 RMK A01 T02230192  RH  083%=      5-min Rain = 0
KST2 201113Z 17006KT 22/19 A2976 RMK A01 T02220192  RH  083%=      5-min Rain = 0
KST2 201114Z 17006KT 22/19 A2976 RMK A01 T02220192  RH  083%=      5-min Rain = 0
KST2 201115Z 17005KT 22/19 A2976 RMK A01 T02230192  RH  083%=      5-min Rain = 0
KST2 201116Z 17005KT 22/19 A2976 RMK A01 T02220192  RH  083%=      5-min Rain = 0
KST2 201117Z 17006KT 22/19 A2976 RMK A01 T02220192  RH  083%=      5-min Rain = 0
KST2 201118Z 17005KT 22/19 A2976 RMK A01 T02220192  RH  083%=      5-min Rain = 0
KST2 201119Z 17006KT 22/19 A2976 RMK A01 T02220193  RH  083%=      5-min Rain = 0
KST2 201120Z 17006KT 22/19 A2976 RMK A01 T02220193  RH  083%=      5-min Rain = 0
KST2 201121Z 17006KT 22/19 A2976 RMK A01 T02230193  RH  083%=      5-min Rain = 0
KST2 201122Z 16006KT 22/19 A2976 RMK A01 T02230193  RH  083%=      5-min Rain = 0
KST2 201123Z 16006KT 22/19 A2976 RMK A01 T02220193  RH  083%=      5-min Rain = 0
KST2 201124Z 16006KT 22/19 A2976 RMK A01 T02220193  RH  084%=      5-min Rain = 0
KST2 201125Z 16006KT 22/19 A2976 RMK A01 T02220193  RH  084%=      5-min Rain = 0
KST2 201126Z 16007KT 22/19 A2976 RMK A01 T02220193  RH  084%=      5-min Rain = 0
KST2 201127Z 16007KT 22/19 A2976 RMK A01 T02220194  RH  084%=      5-min Rain = 0
KST2 201128Z 15007KT 22/19 A2976 RMK A01 T02220194  RH  084%=      5-min Rain = 0
KST2 201129Z 15008KT 22/19 A2976 RMK A01 T02220194  RH  084%=      5-min Rain = 0
KST2 201130Z 15008KT 22/20 A2976 RMK A01 T02230195  RH  084%=      5-min Rain = 0
KST2 201131Z 15008KT 22/20 A2976 RMK A01 T02230195  RH  084%=      5-min Rain = 0
KST2 201132Z 15009KT 22/20 A2976 RMK A01 T02230195  RH  084%=      5-min Rain = 0
KST2 201133Z 15008KT 22/20 A2976 RMK A01 T02230196  RH  084%=      5-min Rain = 0
KST2 201134Z 15007KT 22/20 A2976 RMK A01 T02240196  RH  084%=      5-min Rain = 0
KST2 201135Z 15007KT 22/20 A2976 RMK A01 T02240197  RH  084%=      5-min Rain = 0
KST2 201136Z 15007KT 22/20 A2976 RMK A01 T02240197  RH  084%=      5-min Rain = 0
KST2 201137Z 14007KT 22/20 A2975 RMK A01 T02240197  RH  085%=      5-min Rain = 0
KST2 201138Z 14006KT 22/20 A2975 RMK A01 T02240197  RH  085%=      5-min Rain = 0
KST2 201139Z 13005KT 22/20 A2976 RMK A01 T02240197  RH  085%=      5-min Rain = 0
KST2 201140Z 13005KT 22/20 A2976 RMK A01 T02240197  RH  085%=      5-min Rain = 0
KST2 201141Z 14004KT 22/20 A2976 RMK A01 T02230197  RH  085%=      5-min Rain = 0
KST2 201142Z 14005KT 22/20 A2976 RMK A01 T02220196  RH  085%=      5-min Rain = 0
KST2 201143Z 14006KT 22/20 A2976 RMK A01 T02210196  RH  086%=      5-min Rain = 0
KST2 201144Z 13007KT 22/20 A2975 RMK A01 T02210196  RH  086%=      5-min Rain = 0
KST2 201145Z 14007KT 22/20 A2975 RMK A01 T02200195  RH  086%=      5-min Rain = 0
KST2 201146Z 14006KT 22/20 A2975 RMK A01 T02200196  RH  086%=      5-min Rain = 0
KST2 201147Z 15007KT 22/20 A2975 RMK A01 T02200196  RH  086%=      5-min Rain = 0
KST2 201148Z 15007KT 22/20 A2975 RMK A01 T02200196  RH  086%=      5-min Rain = 0
KST2 201149Z 15007KT 22/20 A2975 RMK A01 T02200197  RH  087%=      5-min Rain = 0
KST2 201150Z 15008KT 22/20 A2975 RMK A01 T02200197  RH  087%=      5-min Rain = 0
KST2 201151Z 15008KT 22/20 A2975 RMK A01 T02210198  RH  087%=      5-min Rain = 0
KST2 201152Z 15008KT 22/20 A2975 RMK A01 T02210199  RH  087%=      5-min Rain = 0
KST2 201153Z 16008KT 22/20 A2975 RMK A01 T02220199  RH  087%=      5-min Rain = 0
KST2 201154Z 16006KT 22/20 A2975 RMK A01 T02230200  RH  087%=      5-min Rain = 0
KST2 201155Z 16007KT 22/20 A2975 RMK A01 T02230200  RH  087%=      5-min Rain = 0
KST2 201156Z 16006KT 22/20 A2975 RMK A01 T02240200  RH  086%=      5-min Rain = 0
KST2 201157Z 16007KT 23/20 A2975 RMK A01 T02250201  RH  086%=      5-min Rain = 0
KST2 201158Z 16007KT 23/20 A2975 RMK A01 T02250200  RH  086%=      5-min Rain = 0
KST2 201159Z 16008KT 23/20 A2975 RMK A01 T02250200  RH  086%=      5-min Rain = 0
KST2 201200Z 17008KT 23/20 A2975 RMK A01 T02260201  RH  086%=      5-min Rain = 0
KST2 201201Z 16009KT 23/20 A2975 RMK A01 T02260201  RH  086%=      5-min Rain = 0
KST2 201202Z 16009KT 23/20 A2975 RMK A01 T02260201  RH  085%=      5-min Rain = 0
KST2 201203Z 16009KT 23/20 A2975 RMK A01 T02270201  RH  085%=      5-min Rain = 0
KST2 201204Z 17009KT 23/20 A2975 RMK A01 T02270201  RH  085%=      5-min Rain = 0
KST2 201205Z 16009KT 23/20 A2975 RMK A01 T02270202  RH  085%=      5-min Rain = 0
KST2 201206Z 16008KT 23/20 A2975 RMK A01 T02280202  RH  085%=      5-min Rain = 0
KST2 201207Z 16009KT 23/20 A2975 RMK A01 T02280202  RH  085%=      5-min Rain = 0
KST2 201208Z 16009KT 23/20 A2975 RMK A01 T02280202  RH  085%=      5-min Rain = 0
KST2 201209Z 16009KT 23/20 A2975 RMK A01 T02290202  RH  085%=      5-min Rain = 0
KST2 201210Z 16009KT 23/20 A2975 RMK A01 T02290202  RH  085%=      5-min Rain = 0
KST2 201211Z 16008KT 23/20 A2975 RMK A01 T02290203  RH  085%=      5-min Rain = 0
KST2 201212Z 16008KT 23/20 A2975 RMK A01 T02300203  RH  085%=      5-min Rain = 0
KST2 201213Z 15008KT 23/20 A2975 RMK A01 T02300203  RH  085%=      5-min Rain = 0
KST2 201214Z 16007KT 23/20 A2975 RMK A01 T02300203  RH  085%=      5-min Rain = 0
KST2 201215Z 16006KT 23/20 A2975 RMK A01 T02300203  RH  085%=      5-min Rain = 0
KST2 201216Z 15007KT 23/20 A2975 RMK A01 T02300203  RH  085%=      5-min Rain = 0
KST2 201217Z 16006KT 23/20 A2975 RMK A01 T02300203  RH  085%=      5-min Rain = 0
KST2 201218Z 16006KT 23/20 A2975 RMK A01 T02300203  RH  085%=      5-min Rain = 0
KST2 201219Z 15007KT 23/20 A2975 RMK A01 T02300204  RH  085%=      5-min Rain = 0
KST2 201220Z 15006KT 23/20 A2975 RMK A01 T02300204  RH  085%=      5-min Rain = 0
KST2 201221Z 15006KT 23/20 A2975 RMK A01 T02300204  RH  085%=      5-min Rain = 0
KST2 201222Z 15007KT 23/20 A2975 RMK A01 T02310204  RH  085%=      5-min Rain = 0
KST2 201223Z 15007KT 23/20 A2975 RMK A01 T02310204  RH  085%=      5-min Rain = 0
KST2 201224Z 15007KT 23/20 A2975 RMK A01 T02310204  RH  085%=      5-min Rain = 0
KST2 201225Z 15007KT 23/20 A2975 RMK A01 T02310204  RH  085%=      5-min Rain = 0
KST2 201226Z 15008KT 23/21 A2975 RMK A01 T02320205  RH  085%=      5-min Rain = 0
KST2 201227Z 14007KT 23/21 A2975 RMK A01 T02320205  RH  085%=      5-min Rain = 0
KST2 201228Z 14009KT 23/21 A2975 RMK A01 T02320205  RH  085%=      5-min Rain = 0
KST2 201229Z 14008KT 23/21 A2975 RMK A01 T02320205  RH  085%=      5-min Rain = 0
KST2 201230Z 14008KT 23/21 A2975 RMK A01 T02320205  RH  085%=      5-min Rain = 0
KST2 201231Z 14008KT 23/21 A2975 RMK A01 T02320205  RH  085%=      5-min Rain = 0
KST2 201232Z 14007KT 23/21 A2975 RMK A01 T02330206  RH  085%=      5-min Rain = 0
KST2 201233Z 14007KT 23/21 A2976 RMK A01 T02330206  RH  085%=      5-min Rain = 0
KST2 201234Z 13007KT 23/21 A2976 RMK A01 T02330206  RH  085%=      5-min Rain = 0
KST2 201235Z 13007KT 23/21 A2976 RMK A01 T02330207  RH  085%=      5-min Rain = 0
KST2 201236Z 13008KT 23/21 A2976 RMK A01 T02330207  RH  085%=      5-min Rain = 0
KST2 201237Z 13007KT 23/21 A2976 RMK A01 T02330207  RH  085%=      5-min Rain = 0
KST2 201238Z 12008KT 23/21 A2976 RMK A01 T02340207  RH  085%=      5-min Rain = 0
KST2 201239Z 12008KT 23/21 A2976 RMK A01 T02330207  RH  085%=      5-min Rain = 0
KST2 201240Z 12006KT 23/21 A2976 RMK A01 T02340207  RH  085%=      5-min Rain = 0
KST2 201241Z 11006KT 23/21 A2976 RMK A01 T02340208  RH  086%=      5-min Rain = 0
KST2 201242Z 11007KT 24/21 A2976 RMK A01 T02350209  RH  086%=      5-min Rain = 0
KST2 201243Z 11006KT 24/21 A2976 RMK A01 T02350209  RH  085%=      5-min Rain = 0
KST2 201244Z 10007KT 24/21 A2976 RMK A01 T02350209  RH  086%=      5-min Rain = 0
KST2 201245Z 11008KT 24/21 A2976 RMK A01 T02350209  RH  086%=      5-min Rain = 0
KST2 201246Z 11008KT 24/21 A2976 RMK A01 T02350209  RH  085%=      5-min Rain = 0
KST2 201247Z 11008KT 24/21 A2976 RMK A01 T02350209  RH  086%=      5-min Rain = 0
KST2 201248Z 11007KT 24/21 A2976 RMK A01 T02350209  RH  086%=      5-min Rain = 0
KST2 201249Z 11008KT 24/21 A2976 RMK A01 T02350210  RH  086%=      5-min Rain = 0
KST2 201250Z 11007KT 24/21 A2976 RMK A01 T02360210  RH  086%=      5-min Rain = 0
KST2 201251Z 12007KT 24/21 A2976 RMK A01 T02360210  RH  086%=      5-min Rain = 0
KST2 201252Z 12008KT 24/21 A2976 RMK A01 T02360210  RH  085%=      5-min Rain = 0
KST2 201253Z 13008KT 24/21 A2976 RMK A01 T02370210  RH  085%=      5-min Rain = 0
KST2 201254Z 13009KT 24/21 A2976 RMK A01 T02370211  RH  085%=      5-min Rain = 0
KST2 201255Z 13009KT 24/21 A2976 RMK A01 T02380211  RH  085%=      5-min Rain = 0
KST2 201256Z 13009KT 24/21 A2976 RMK A01 T02380210  RH  085%=      5-min Rain = 0
KST2 201257Z 14010KT 24/21 A2976 RMK A01 T02380211  RH  085%=      5-min Rain = 0
KST2 201258Z 14009KT 24/21 A2976 RMK A01 T02380211  RH  084%=      5-min Rain = 0
KST2 201259Z 14008KT 24/21 A2976 RMK A01 T02390211  RH  085%=      5-min Rain = 0
KST2 201300Z 15010KT 24/21 A2976 RMK A01 T02390211  RH  084%=      5-min Rain = 0
KST2 201301Z 15010KT 24/21 A2976 RMK A01 T02400212  RH  084%=      5-min Rain = 0
KST2 201302Z 15009KT 24/21 A2976 RMK A01 T02400212  RH  084%=      5-min Rain = 0
KST2 201303Z 14009KT 24/21 A2976 RMK A01 T02400212  RH  084%=      5-min Rain = 0
KST2 201304Z 14009KT 24/21 A2975 RMK A01 T02410212  RH  084%=      5-min Rain = 0
KST2 201305Z 14010KT 24/21 A2976 RMK A01 T02410212  RH  084%=      5-min Rain = 0
KST2 201306Z 16009KT 24/21 A2976 RMK A01 T02420212  RH  084%=      5-min Rain = 0
KST2 201307Z 16009KT 24/21 A2976 RMK A01 T02420212  RH  084%=      5-min Rain = 0
KST2 201308Z 15009KT 24/21 A2976 RMK A01 T02420212  RH  083%=      5-min Rain = 0
KST2 201309Z 15009KT 24/21 A2976 RMK A01 T02420212  RH  083%=      5-min Rain = 0
KST2 201310Z 15011KT 24/21 A2976 RMK A01 T02430213  RH  083%=      5-min Rain = 0
KST2 201311Z 15009KT 24/21 A2976 RMK A01 T02430213  RH  083%=      5-min Rain = 0
KST2 201312Z 15010KT 24/21 A2976 RMK A01 T02440214  RH  083%=      5-min Rain = 0
KST2 201313Z 14010KT 24/21 A2976 RMK A01 T02440213  RH  083%=      5-min Rain = 0
KST2 201314Z 14011KT 25/21 A2976 RMK A01 T02450213  RH  083%=      5-min Rain = 0
KST2 201315Z 15010KT 25/21 A2976 RMK A01 T02450212  RH  082%=      5-min Rain = 0
KST2 201316Z 14010KT 25/21 A2976 RMK A01 T02450214  RH  083%=      5-min Rain = 0
KST2 201317Z 14010KT 25/22 A2976 RMK A01 T02460215  RH  083%=      5-min Rain = 0
KST2 201318Z 15012KT 25/21 A2976 RMK A01 T02460214  RH  082%=      5-min Rain = 0
KST2 201319Z 15011KT 25/21 A2976 RMK A01 T02470213  RH  082%=      5-min Rain = 0
KST2 201320Z 14011KT 25/21 A2976 RMK A01 T02470214  RH  082%=      5-min Rain = 0
KST2 201321Z 15010KT 25/21 A2976 RMK A01 T02470214  RH  082%=      5-min Rain = 0
KST2 201322Z 15010KT 25/21 A2976 RMK A01 T02470214  RH  082%=      5-min Rain = 0
KST2 201323Z 14008KT 25/22 A2976 RMK A01 T02470215  RH  082%=      5-min Rain = 0
KST2 201324Z 14010KT 25/22 A2977 RMK A01 T02480215  RH  082%=      5-min Rain = 0
KST2 201325Z 14011KT 25/22 A2977 RMK A01 T02480215  RH  082%=      5-min Rain = 0
KST2 201326Z 14008KT 25/22 A2977 RMK A01 T02490216  RH  082%=      5-min Rain = 0
KST2 201327Z 14009KT 25/22 A2976 RMK A01 T02490216  RH  082%=      5-min Rain = 0
KST2 201328Z 14010KT 25/22 A2976 RMK A01 T02500216  RH  082%=      5-min Rain = 0
KST2 201329Z 15011KT 25/22 A2976 RMK A01 T02510217  RH  081%=      5-min Rain = 0
KST2 201330Z 15011KT 25/22 A2976 RMK A01 T02500216  RH  081%=      5-min Rain = 0
KST2 201331Z 15012KT 25/22 A2976 RMK A01 T02500217  RH  082%=      5-min Rain = 0
KST2 201332Z 15011KT 25/22 A2976 RMK A01 T02510216  RH  081%=      5-min Rain = 0
KST2 201333Z 15010KT 25/22 A2976 RMK A01 T02510216  RH  081%=      5-min Rain = 0
KST2 201334Z 15010KT 25/22 A2976 RMK A01 T02510217  RH  081%=      5-min Rain = 0
KST2 201335Z 15010KT 25/22 A2976 RMK A01 T02520217  RH  081%=      5-min Rain = 0
KST2 201336Z 15010KT 25/22 A2976 RMK A01 T02520218  RH  081%=      5-min Rain = 0
KST2 201337Z 14011KT 25/22 A2976 RMK A01 T02530217  RH  081%=      5-min Rain = 0
KST2 201338Z 15011KT 25/22 A2976 RMK A01 T02530216  RH  080%=      5-min Rain = 0
KST2 201339Z 15011KT 25/22 A2976 RMK A01 T02530217  RH  080%=      5-min Rain = 0
KST2 201340Z 14010KT 25/22 A2977 RMK A01 T02540218  RH  080%=      5-min Rain = 0
KST2 201341Z 15008KT 25/22 A2977 RMK A01 T02540218  RH  081%=      5-min Rain = 0
KST2 201342Z 15007KT 26/22 A2977 RMK A01 T02560219  RH  080%=      5-min Rain = 0
KST2 201343Z 15009KT 26/22 A2977 RMK A01 T02560220  RH  080%=      5-min Rain = 0
KST2 201344Z 15012KT 26/22 A2977 RMK A01 T02570219  RH  080%=      5-min Rain = 0
KST2 201345Z 16011KT 26/22 A2977 RMK A01 T02570218  RH  079%=      5-min Rain = 0
KST2 201346Z 16010KT 26/22 A2977 RMK A01 T02570218  RH  079%=      5-min Rain = 0
KST2 201347Z 15009KT 26/22 A2977 RMK A01 T02560219  RH  080%=      5-min Rain = 0
KST2 201348Z 15010KT 26/22 A2977 RMK A01 T02570219  RH  079%=      5-min Rain = 0
KST2 201349Z 15010KT 26/22 A2977 RMK A01 T02570218  RH  079%=      5-min Rain = 0
KST2 201350Z 16011KT 26/22 A2977 RMK A01 T02570218  RH  079%=      5-min Rain = 0
KST2 201351Z 15010KT 26/22 A2977 RMK A01 T02580218  RH  079%=      5-min Rain = 0
KST2 201352Z 15010KT 26/22 A2977 RMK A01 T02580219  RH  079%=      5-min Rain = 0
KST2 201353Z 17010KT 26/22 A2977 RMK A01 T02580218  RH  078%=      5-min Rain = 0
KST2 201354Z 17012KT 26/22 A2977 RMK A01 T02590218  RH  078%=      5-min Rain = 0
KST2 201355Z 16010KT 26/22 A2977 RMK A01 T02590218  RH  078%=      5-min Rain = 0
KST2 201356Z 15011KT 26/22 A2977 RMK A01 T02590218  RH  078%=      5-min Rain = 0
KST2 201357Z 16010KT 26/22 A2977 RMK A01 T02590219  RH  078%=      5-min Rain = 0
KST2 201358Z 16009KT 26/22 A2977 RMK A01 T02600221  RH  079%=      5-min Rain = 0
KST2 201359Z 16011KT 26/22 A2977 RMK A01 T02610220  RH  078%=      5-min Rain = 0
KST2 201400Z 16012KT 26/22 A2977 RMK A01 T02610218  RH  077%=      5-min Rain = 0
KST2 201401Z 17012KT 26/22 A2977 RMK A01 T02610218  RH  077%=      5-min Rain = 0
KST2 201402Z 16012KT 26/22 A2977 RMK A01 T02600219  RH  078%=      5-min Rain = 0
KST2 201403Z 17011KT 26/22 A2977 RMK A01 T02610218  RH  077%=      5-min Rain = 0
KST2 201404Z 17011KT 26/22 A2977 RMK A01 T02600217  RH  077%=      5-min Rain = 0
KST2 201405Z 17009KT 26/22 A2977 RMK A01 T02610217  RH  077%=      5-min Rain = 0
KST2 201406Z 17009KT 26/22 A2978 RMK A01 T02600220  RH  078%=      5-min Rain = 0
KST2 201407Z 18010KT 26/22 A2978 RMK A01 T02620218  RH  077%=      5-min Rain = 0
KST2 201408Z 18010KT 26/22 A2978 RMK A01 T02620219  RH  077%=      5-min Rain = 0
KST2 201409Z 17011KT 26/22 A2978 RMK A01 T02620218  RH  077%=      5-min Rain = 0
KST2 201410Z 17010KT 26/22 A2977 RMK A01 T02630219  RH  077%=      5-min Rain = 0
KST2 201411Z 17010KT 26/22 A2977 RMK A01 T02630221  RH  077%=      5-min Rain = 0
KST2 201412Z 16012KT 26/22 A2977 RMK A01 T02630219  RH  077%=      5-min Rain = 0
KST2 201413Z 17010KT 26/22 A2977 RMK A01 T02630219  RH  077%=      5-min Rain = 0
KST2 201414Z 17011KT 26/22 A2977 RMK A01 T02630220  RH  077%=      5-min Rain = 0
KST2 201415Z 16009KT 26/22 A2977 RMK A01 T02630219  RH  077%=      5-min Rain = 0
KST2 201416Z 17010KT 26/22 A2977 RMK A01 T02630220  RH  077%=      5-min Rain = 0
KST2 201417Z 16011KT 26/22 A2977 RMK A01 T02640221  RH  077%=      5-min Rain = 0
KST2 201418Z 17008KT 27/22 A2977 RMK A01 T02650220  RH  076%=      5-min Rain = 0
KST2 201419Z 18009KT 27/22 A2977 RMK A01 T02660221  RH  077%=      5-min Rain = 0
KST2 201420Z 18010KT 27/22 A2977 RMK A01 T02670220  RH  075%=      5-min Rain = 0
KST2 201421Z 17008KT 27/22 A2977 RMK A01 T02680222  RH  076%=      5-min Rain = 0
KST2 201422Z 16010KT 27/22 A2977 RMK A01 T02690221  RH  075%=      5-min Rain = 0
KST2 201423Z 16010KT 27/22 A2977 RMK A01 T02690221  RH  075%=      5-min Rain = 0
KST2 201424Z 17010KT 27/22 A2977 RMK A01 T02690221  RH  075%=      5-min Rain = 0
KST2 201425Z 18011KT 27/22 A2977 RMK A01 T02690221  RH  075%=      5-min Rain = 0
KST2 201426Z 17010KT 27/22 A2977 RMK A01 T02690219  RH  074%=      5-min Rain = 0
KST2 201427Z 16010KT 27/22 A2977 RMK A01 T02690220  RH  075%=      5-min Rain = 0
KST2 201428Z 17011KT 27/22 A2978 RMK A01 T02700220  RH  074%=      5-min Rain = 0
KST2 201429Z 17010KT 27/22 A2978 RMK A01 T02700219  RH  074%=      5-min Rain = 0
KST2 201430Z 17010KT 27/22 A2978 RMK A01 T02700220  RH  074%=      5-min Rain = 0
KST2 201431Z 17010KT 27/22 A2978 RMK A01 T02700220  RH  074%=      5-min Rain = 0
KST2 201432Z 17012KT 27/22 A2978 RMK A01 T02700220  RH  074%=      5-min Rain = 0
KST2 201433Z 18011KT 27/22 A2978 RMK A01 T02700219  RH  073%=      5-min Rain = 0
KST2 201434Z 18011KT 27/22 A2978 RMK A01 T02710219  RH  073%=      5-min Rain = 0
KST2 201435Z 17012KT 27/22 A2978 RMK A01 T02710218  RH  073%=      5-min Rain = 0
KST2 201436Z 17010KT 27/22 A2978 RMK A01 T02710219  RH  073%=      5-min Rain = 0
KST2 201437Z 17011KT 27/22 A2978 RMK A01 T02720219  RH  073%=      5-min Rain = 0
KST2 201438Z 17010KT 27/22 A2978 RMK A01 T02730220  RH  073%=      5-min Rain = 0
KST2 201439Z 18012KT 27/22 A2978 RMK A01 T02740221  RH  073%=      5-min Rain = 0
KST2 201440Z 17012KT 27/22 A2978 RMK A01 T02740221  RH  072%=      5-min Rain = 0
KST2 201441Z 18013KT 28/22 A2978 RMK A01 T02750220  RH  072%=      5-min Rain = 0
KST2 201442Z 18012KT 28/22 A2978 RMK A01 T02750220  RH  072%=      5-min Rain = 0
KST2 201443Z 18010KT 28/22 A2978 RMK A01 T02750220  RH  072%=      5-min Rain = 0
KST2 201444Z 17009KT 28/22 A2978 RMK A01 T02760223  RH  073%=      5-min Rain = 0
KST2 201445Z 16011KT 28/22 A2978 RMK A01 T02770223  RH  073%=      5-min Rain = 0
KST2 201446Z 16011KT 28/22 A2978 RMK A01 T02770222  RH  072%=      5-min Rain = 0
KST2 201447Z 16011KT 28/22 A2978 RMK A01 T02770223  RH  072%=      5-min Rain = 0
KST2 201448Z 17012KT 28/22 A2978 RMK A01 T02770222  RH  072%=      5-min Rain = 0
KST2 201449Z 17011KT 28/22 A2978 RMK A01 T02770220  RH  071%=      5-min Rain = 0
KST2 201450Z 17010KT 28/22 A2978 RMK A01 T02770220  RH  071%=      5-min Rain = 0
KST2 201451Z 18010KT 28/22 A2978 RMK A01 T02770220  RH  071%=      5-min Rain = 0
KST2 201452Z 18011KT 28/22 A2978 RMK A01 T02770221  RH  071%=      5-min Rain = 0
KST2 201453Z 18012KT 28/22 A2978 RMK A01 T02770221  RH  071%=      5-min Rain = 0
KST2 201454Z 18010KT 28/22 A2978 RMK A01 T02780222  RH  072%=      5-min Rain = 0
KST2 201455Z 17011KT 28/22 A2977 RMK A01 T02790223  RH  071%=      5-min Rain = 0
KST2 201456Z 17010KT 28/23 A2977 RMK A01 T02790226  RH  073%=      5-min Rain = 0
KST2 201457Z 17011KT 28/22 A2977 RMK A01 T02800223  RH  071%=      5-min Rain = 0
KST2 201458Z 17010KT 28/22 A2977 RMK A01 T02800221  RH  070%=      5-min Rain = 0
KST2 201459Z 17010KT 28/22 A2977 RMK A01 T02790223  RH  071%=      5-min Rain = 0
KST2 201500Z 18011KT 28/22 A2977 RMK A01 T02800223  RH  071%=      5-min Rain = 0
KST2 201501Z 18012KT 28/22 A2977 RMK A01 T02800222  RH  071%=      5-min Rain = 0
KST2 201502Z 17010KT 28/22 A2977 RMK A01 T02800222  RH  071%=      5-min Rain = 0
KST2 201503Z 16012KT 28/22 A2977 RMK A01 T02800224  RH  071%=      5-min Rain = 0
KST2 201504Z 18012KT 28/22 A2977 RMK A01 T02810223  RH  071%=      5-min Rain = 0
KST2 201505Z 18012KT 28/22 A2977 RMK A01 T02820222  RH  070%=      5-min Rain = 0
KST2 201506Z 18011KT 28/22 A2977 RMK A01 T02820223  RH  070%=      5-min Rain = 0
KST2 201507Z 18012KT 28/22 A2977 RMK A01 T02830222  RH  070%=      5-min Rain = 0
KST2 201508Z 18012KT 28/22 A2977 RMK A01 T02830222  RH  070%=      5-min Rain = 0
KST2 201509Z 18011KT 28/22 A2977 RMK A01 T02830222  RH  070%=      5-min Rain = 0
KST2 201510Z 18010KT 28/22 A2977 RMK A01 T02840222  RH  069%=      5-min Rain = 0
KST2 201511Z 18011KT 28/22 A2977 RMK A01 T02840221  RH  069%=      5-min Rain = 0
KST2 201512Z 18010KT 28/22 A2977 RMK A01 T02840221  RH  069%=      5-min Rain = 0
KST2 201513Z 18012KT 28/22 A2977 RMK A01 T02840224  RH  070%=      5-min Rain = 0
KST2 201514Z 18011KT 29/22 A2977 RMK A01 T02850223  RH  069%=      5-min Rain = 0
KST2 201515Z 17011KT 29/22 A2977 RMK A01 T02860223  RH  069%=      5-min Rain = 0
KST2 201516Z 16011KT 29/23 A2977 RMK A01 T02860225  RH  069%=      5-min Rain = 0
KST2 201517Z 17010KT 29/23 A2977 RMK A01 T02870225  RH  069%=      5-min Rain = 0
KST2 201518Z 18011KT 29/23 A2977 RMK A01 T02870226  RH  069%=      5-min Rain = 0
KST2 201519Z 16011KT 29/23 A2977 RMK A01 T02880226  RH  069%=      5-min Rain = 0
KST2 201520Z 16011KT 29/23 A2977 RMK A01 T02890225  RH  068%=      5-min Rain = 0
KST2 201521Z 17010KT 29/23 A2977 RMK A01 T02890227  RH  069%=      5-min Rain = 0
KST2 201522Z 18011KT 29/23 A2977 RMK A01 T02900225  RH  068%=      5-min Rain = 0
KST2 201523Z 17010KT 29/22 A2977 RMK A01 T02900224  RH  068%=      5-min Rain = 0
KST2 201524Z 17011KT 29/23 A2977 RMK A01 T02900229  RH  069%=      5-min Rain = 0
KST2 201525Z 17010KT 29/23 A2977 RMK A01 T02910226  RH  068%=      5-min Rain = 0
KST2 201526Z 17009KT 29/23 A2977 RMK A01 T02910228  RH  069%=      5-min Rain = 0
KST2 201527Z 17011KT 29/23 A2977 RMK A01 T02930230  RH  069%=      5-min Rain = 0
KST2 201528Z 17010KT 29/23 A2977 RMK A01 T02940226  RH  067%=      5-min Rain = 0
KST2 201529Z 17009KT 29/23 A2977 RMK A01 T02930229  RH  068%=      5-min Rain = 0
KST2 201530Z 17008KT 29/23 A2977 RMK A01 T02930230  RH  069%=      5-min Rain = 0
KST2 201531Z 16008KT 29/23 A2977 RMK A01 T02940230  RH  068%=      5-min Rain = 0
KST2 201532Z 18009KT 29/23 A2977 RMK A01 T02940231  RH  069%=      5-min Rain = 0
KST2 201533Z 18010KT 30/23 A2977 RMK A01 T02950227  RH  067%=      5-min Rain = 0
KST2 201534Z 18009KT 29/23 A2977 RMK A01 T02940226  RH  067%=      5-min Rain = 0
KST2 201535Z 18011KT 29/23 A2977 RMK A01 T02940227  RH  067%=      5-min Rain = 0
KST2 201536Z 17010KT 29/23 A2977 RMK A01 T02940226  RH  067%=      5-min Rain = 0
KST2 201537Z 17010KT 30/23 A2977 RMK A01 T02950227  RH  067%=      5-min Rain = 0
KST2 201538Z 17010KT 30/23 A2977 RMK A01 T02950228  RH  067%=      5-min Rain = 0
KST2 201539Z 17010KT 30/23 A2977 RMK A01 T02960230  RH  068%=      5-min Rain = 0
KST2 201540Z 17011KT 30/23 A2977 RMK A01 T02970229  RH  067%=      5-min Rain = 0
KST2 201541Z 16013KT 30/23 A2977 RMK A01 T02970230  RH  067%=      5-min Rain = 0
KST2 201542Z 17012KT 30/23 A2977 RMK A01 T02980229  RH  067%=      5-min Rain = 0
KST2 201543Z 17012KT 30/23 A2977 RMK A01 T02970228  RH  066%=      5-min Rain = 0
KST2 201544Z 18012KT 30/23 A2977 RMK A01 T02970227  RH  066%=      5-min Rain = 0
KST2 201545Z 18010KT 30/23 A2977 RMK A01 T02970226  RH  065%=      5-min Rain = 0
KST2 201546Z 16010KT 30/23 A2977 RMK A01 T02980230  RH  067%=      5-min Rain = 0
KST2 201547Z 17008KT 30/23 A2976 RMK A01 T03000231  RH  066%=      5-min Rain = 0
KST2 201548Z 17008KT 30/23 A2976 RMK A01 T03000232  RH  067%=      5-min Rain = 0
KST2 201549Z 18011KT 30/23 A2976 RMK A01 T03020234  RH  067%=      5-min Rain = 0
KST2 201550Z 17011KT 30/23 A2976 RMK A01 T03030231  RH  065%=      5-min Rain = 0
KST2 201551Z 18011KT 30/23 A2976 RMK A01 T03040231  RH  065%=      5-min Rain = 0
KST2 201552Z 18011KT 30/23 A2976 RMK A01 T03030229  RH  065%=      5-min Rain = 0
KST2 201553Z 18012KT 30/23 A2976 RMK A01 T03030228  RH  064%=      5-min Rain = 0
KST2 201554Z 18011KT 30/23 A2976 RMK A01 T03040227  RH  063%=      5-min Rain = 0
KST2 201555Z 19013KT 31/23 A2976 RMK A01 T03050228  RH  063%=      5-min Rain = 0
KST2 201556Z 19012KT 31/22 A2976 RMK A01 T03060223  RH  061%=      5-min Rain = 0
KST2 201557Z 18010KT 31/22 A2976 RMK A01 T03060223  RH  061%=      5-min Rain = 0
KST2 201558Z 19010KT 31/22 A2976 RMK A01 T03060224  RH  062%=      5-min Rain = 0
KST2 201559Z 18012KT 31/22 A2976 RMK A01 T03060222  RH  061%=      5-min Rain = 0
KST2 201600Z 18012KT 31/22 A2976 RMK A01 T03060223  RH  061%=      5-min Rain = 0
KST2 201601Z 19012KT 31/22 A2976 RMK A01 T03070223  RH  061%=      5-min Rain = 0
KST2 201602Z 20011KT 31/22 A2976 RMK A01 T03080224  RH  061%=      5-min Rain = 0
KST2 201603Z 18010KT 31/22 A2976 RMK A01 T03070224  RH  061%=      5-min Rain = 0
KST2 201604Z 19009KT 31/23 A2976 RMK A01 T03080227  RH  062%=      5-min Rain = 0
KST2 201605Z 19011KT 31/22 A2976 RMK A01 T03090224  RH  061%=      5-min Rain = 0
KST2 201606Z 19012KT 31/23 A2976 RMK A01 T03100226  RH  061%=      5-min Rain = 0
KST2 201607Z 19010KT 31/22 A2976 RMK A01 T03090223  RH  060%=      5-min Rain = 0
KST2 201608Z 18010KT 31/22 A2976 RMK A01 T03090224  RH  061%=      5-min Rain = 0
KST2 201609Z 18008KT 31/22 A2976 RMK A01 T03090224  RH  060%=      5-min Rain = 0
KST2 201610Z 17012KT 31/23 A2976 RMK A01 T03090226  RH  061%=      5-min Rain = 0
KST2 201611Z 17011KT 31/23 A2976 RMK A01 T03100226  RH  061%=      5-min Rain = 0
KST2 201612Z 17011KT 31/23 A2976 RMK A01 T03100227  RH  061%=      5-min Rain = 0
KST2 201613Z 18010KT 31/23 A2976 RMK A01 T03100226  RH  061%=      5-min Rain = 0
KST2 201614Z 18009KT 31/23 A2976 RMK A01 T03100228  RH  062%=      5-min Rain = 0
KST2 201615Z 18008KT 31/23 A2976 RMK A01 T03110227  RH  061%=      5-min Rain = 0
KST2 201616Z 17009KT 31/23 A2976 RMK A01 T03120228  RH  061%=      5-min Rain = 0
KST2 201617Z 17010KT 31/23 A2976 RMK A01 T03130228  RH  061%=      5-min Rain = 0
KST2 201618Z 18008KT 31/23 A2976 RMK A01 T03120226  RH  060%=      5-min Rain = 0
KST2 201619Z 18010KT 31/23 A2976 RMK A01 T03120229  RH  061%=      5-min Rain = 0
KST2 201620Z 17010KT 31/23 A2976 RMK A01 T03130228  RH  061%=      5-min Rain = 0
KST2 201621Z 18009KT 31/23 A2976 RMK A01 T03130232  RH  062%=      5-min Rain = 0
KST2 201622Z 18008KT 32/23 A2976 RMK A01 T03150233  RH  062%=      5-min Rain = 0
KST2 201623Z 18010KT 32/23 A2976 RMK A01 T03160232  RH  061%=      5-min Rain = 0
KST2 201624Z 18010KT 32/23 A2976 RMK A01 T03170232  RH  061%=      5-min Rain = 0
KST2 201625Z 17011KT 32/23 A2976 RMK A01 T03170231  RH  060%=      5-min Rain = 0
KST2 201626Z 18012KT 32/23 A2976 RMK A01 T03170229  RH  060%=      5-min Rain = 0
KST2 201627Z 20012KT 32/22 A2976 RMK A01 T03170223  RH  058%=      5-min Rain = 0
KST2 201628Z 20010KT 32/23 A2976 RMK A01 T03160225  RH  059%=      5-min Rain = 0
KST2 201629Z 19010KT 32/23 A2976 RMK A01 T03160225  RH  059%=      5-min Rain = 0
KST2 201630Z 19011KT 32/23 A2976 RMK A01 T03170225  RH  058%=      5-min Rain = 0
KST2 201631Z 19011KT 32/22 A2976 RMK A01 T03170223  RH  057%=      5-min Rain = 0
KST2 201632Z 20008KT 32/23 A2976 RMK A01 T03170226  RH  058%=      5-min Rain = 0
KST2 201633Z 20009KT 32/23 A2976 RMK A01 T03200229  RH  059%=      5-min Rain = 0
KST2 201634Z 19008KT 32/23 A2977 RMK A01 T03220229  RH  058%=      5-min Rain = 0
KST2 201635Z 17009KT 32/23 A2976 RMK A01 T03220232  RH  059%=      5-min Rain = 0
KST2 201641Z 20012KT 32/23 A2976 RMK A01 T03230228  RH  057%=      5-min Rain = 0
KST2 201642Z 20011KT 32/23 A2976 RMK A01 T03230225  RH  056%=      5-min Rain = 0
KST2 201643Z 20011KT 32/23 A2976 RMK A01 T03220228  RH  058%=      5-min Rain = 0
KST2 201644Z 19012KT 32/23 A2976 RMK A01 T03220228  RH  058%=      5-min Rain = 0
KST2 201645Z 19009KT 32/23 A2976 RMK A01 T03230227  RH  057%=      5-min Rain = 0
KST2 201646Z 19010KT 32/22 A2976 RMK A01 T03240224  RH  056%=      5-min Rain = 0
KST2 201647Z 20009KT 32/23 A2976 RMK A01 T03240227  RH  057%=      5-min Rain = 0
KST2 201648Z 19009KT 33/23 A2976 RMK A01 T03250230  RH  057%=      5-min Rain = 0
KST2 201649Z 19010KT 33/23 A2976 RMK A01 T03260229  RH  057%=      5-min Rain = 0
KST2 201650Z 19008KT 33/23 A2976 RMK A01 T03270231  RH  057%=      5-min Rain = 0
KST2 201651Z 19009KT 33/23 A2976 RMK A01 T03280228  RH  056%=      5-min Rain = 0
KST2 201652Z 19011KT 33/23 A2976 RMK A01 T03280226  RH  055%=      5-min Rain = 0
KST2 201653Z 20011KT 33/23 A2976 RMK A01 T03290225  RH  054%=      5-min Rain = 0
KST2 201654Z 19009KT 33/22 A2976 RMK A01 T03290223  RH  054%=      5-min Rain = 0
KST2 201655Z 18013KT 33/22 A2976 RMK A01 T03270223  RH  054%=      5-min Rain = 0
KST2 201656Z 18013KT 33/22 A2976 RMK A01 T03280224  RH  054%=      5-min Rain = 0
KST2 201657Z 20011KT 33/23 A2976 RMK A01 T03290226  RH  055%=      5-min Rain = 0
KST2 201658Z 19011KT 33/23 A2976 RMK A01 T03310227  RH  055%=      5-min Rain = 0
KST2 201659Z 19010KT 33/23 A2976 RMK A01 T03310225  RH  054%=      5-min Rain = 0
KST2 201700Z 19011KT 33/22 A2976 RMK A01 T03310224  RH  053%=      5-min Rain = 0
KST2 201701Z 21009KT 33/23 A2976 RMK A01 T03310226  RH  054%=      5-min Rain = 0
KST2 201702Z 21009KT 33/23 A2976 RMK A01 T03310226  RH  054%=      5-min Rain = 0
KST2 201703Z 20010KT 33/23 A2976 RMK A01 T03310229  RH  055%=      5-min Rain = 0
KST2 201704Z 20012KT 33/23 A2976 RMK A01 T03320227  RH  054%=      5-min Rain = 0
KST2 201705Z 20009KT 33/22 A2976 RMK A01 T03330224  RH  053%=      5-min Rain = 0
KST2 201706Z 20010KT 33/23 A2976 RMK A01 T03320228  RH  054%=      5-min Rain = 0
KST2 201707Z 20008KT 33/23 A2976 RMK A01 T03330228  RH  054%=      5-min Rain = 0
KST2 201708Z 20010KT 33/23 A2976 RMK A01 T03340230  RH  055%=      5-min Rain = 0
KST2 201709Z 19010KT 34/22 A2976 RMK A01 T03360223  RH  052%=      5-min Rain = 0
KST2 201710Z 20012KT 34/22 A2976 RMK A01 T03360223  RH  052%=      5-min Rain = 0
KST2 201711Z 20012KT 34/22 A2976 RMK A01 T03360222  RH  051%=      5-min Rain = 0
KST2 201712Z 20012KT 34/22 A2976 RMK A01 T03370220  RH  050%=      5-min Rain = 0
KST2 201713Z 19011KT 34/22 A2976 RMK A01 T03370218  RH  050%=      5-min Rain = 0
KST2 201714Z 20012KT 34/22 A2976 RMK A01 T03370218  RH  050%=      5-min Rain = 0
KST2 201715Z 19012KT 34/22 A2976 RMK A01 T03380220  RH  050%=      5-min Rain = 0
KST2 201716Z 19009KT 34/22 A2976 RMK A01 T03380217  RH  049%=      5-min Rain = 0
KST2 201717Z 19010KT 34/22 A2976 RMK A01 T03380221  RH  050%=      5-min Rain = 0
KST2 201718Z 20012KT 34/22 A2976 RMK A01 T03390220  RH  050%=      5-min Rain = 0
KST2 201719Z 20012KT 34/22 A2976 RMK A01 T03400221  RH  050%=      5-min Rain = 0
KST2 201720Z 20012KT 34/22 A2976 RMK A01 T03400222  RH  050%=      5-min Rain = 0
KST2 201721Z 20011KT 34/22 A2976 RMK A01 T03400220  RH  050%=      5-min Rain = 0
KST2 201722Z 20013KT 34/22 A2976 RMK A01 T03400220  RH  049%=      5-min Rain = 0
KST2 201723Z 19010KT 34/22 A2976 RMK A01 T03400220  RH  050%=      5-min Rain = 0
KST2 201724Z 19012KT 34/22 A2976 RMK A01 T03400220  RH  049%=      5-min Rain = 0
KST2 201725Z 18010KT 34/22 A2976 RMK A01 T03410220  RH  050%=      5-min Rain = 0
KST2 201726Z 19013KT 34/22 A2976 RMK A01 T03410222  RH  050%=      5-min Rain = 0
KST2 201727Z 20013KT 34/22 A2976 RMK A01 T03420220  RH  049%=      5-min Rain = 0
KST2 201728Z 19010KT 34/22 A2976 RMK A01 T03420220  RH  049%=      5-min Rain = 0
KST2 201729Z 18009KT 34/22 A2976 RMK A01 T03420220  RH  049%=      5-min Rain = 0
KST2 201730Z 19009KT 34/22 A2976 RMK A01 T03420218  RH  048%=      5-min Rain = 0
KST2 201731Z 19009KT 34/22 A2976 RMK A01 T03420222  RH  050%=      5-min Rain = 0
KST2 201732Z 19009KT 34/22 A2976 RMK A01 T03420219  RH  049%=      5-min Rain = 0
KST2 201733Z 18008KT 34/22 A2976 RMK A01 T03420222  RH  049%=      5-min Rain = 0
KST2 201734Z 18010KT 34/22 A2976 RMK A01 T03420220  RH  049%=      5-min Rain = 0
KST2 201735Z 19010KT 34/22 A2976 RMK A01 T03430218  RH  048%=      5-min Rain = 0
KST2 201736Z 19010KT 34/22 A2976 RMK A01 T03440217  RH  048%=      5-min Rain = 0
KST2 201737Z 21008KT 34/22 A2976 RMK A01 T03440218  RH  048%=      5-min Rain = 0
KST2 201738Z 19009KT 34/22 A2976 RMK A01 T03430221  RH  049%=      5-min Rain = 0
KST2 201739Z 18008KT 34/22 A2976 RMK A01 T03430218  RH  048%=      5-min Rain = 0
KST2 201740Z 17008KT 34/22 A2976 RMK A01 T03430218  RH  048%=      5-min Rain = 0
KST2 201741Z 18009KT 34/22 A2976 RMK A01 T03440222  RH  049%=      5-min Rain = 0
KST2 201742Z 20012KT 35/22 A2976 RMK A01 T03460222  RH  049%=      5-min Rain = 0
KST2 201743Z 20010KT 35/22 A2976 RMK A01 T03460221  RH  048%=      5-min Rain = 0
KST2 201744Z 21010KT 35/23 A2976 RMK A01 T03460225  RH  050%=      5-min Rain = 0
KST2 201745Z 20010KT 35/23 A2976 RMK A01 T03460226  RH  050%=      5-min Rain = 0
KST2 201746Z 19009KT 35/22 A2976 RMK A01 T03470218  RH  047%=      5-min Rain = 0
KST2 201747Z 20007KT 35/22 A2976 RMK A01 T03450216  RH  047%=      5-min Rain = 0
KST2 201748Z 21011KT 35/22 A2976 RMK A01 T03450222  RH  049%=      5-min Rain = 0
KST2 201749Z 19011KT 35/22 A2976 RMK A01 T03460220  RH  048%=      5-min Rain = 0
KST2 201750Z 19011KT 35/22 A2976 RMK A01 T03480219  RH  047%=      5-min Rain = 0
KST2 201751Z 19011KT 35/22 A2976 RMK A01 T03490218  RH  047%=      5-min Rain = 0
KST2 201752Z 20010KT 35/22 A2976 RMK A01 T03490216  RH  046%=      5-min Rain = 0
KST2 201753Z 21009KT 35/22 A2976 RMK A01 T03480218  RH  047%=      5-min Rain = 0
KST2 201754Z 20010KT 35/22 A2976 RMK A01 T03480222  RH  048%=      5-min Rain = 0
KST2 201755Z 18011KT 35/22 A2976 RMK A01 T03480218  RH  047%=      5-min Rain = 0
KST2 201756Z 18010KT 35/22 A2976 RMK A01 T03480215  RH  046%=      5-min Rain = 0
KST2 201757Z 17007KT 35/22 A2976 RMK A01 T03470216  RH  047%=      5-min Rain = 0
KST2 201758Z 17010KT 35/22 A2976 RMK A01 T03470221  RH  048%=      5-min Rain = 0
KST2 201759Z 18011KT 35/22 A2976 RMK A01 T03470218  RH  047%=      5-min Rain = 0
KST2 201800Z 17009KT 35/22 A2976 RMK A01 T03480216  RH  046%=      5-min Rain = 0
KST2 201801Z 17009KT 35/22 A2976 RMK A01 T03490216  RH  046%=      5-min Rain = 0
KST2 201802Z 18009KT 35/22 A2976 RMK A01 T03490217  RH  046%=      5-min Rain = 0
KST2 201803Z 19008G13KT 35/22 A2976 RMK A01 T03490216  RH  046%=      5-min Rain = 0
KST2 201804Z 21010KT 35/22 A2976 RMK A01 T03510219  RH  046%=      5-min Rain = 0
KST2 201805Z 20010KT 35/21 A2976 RMK A01 T03530214  RH  045%=      5-min Rain = 0
KST2 201806Z 21007KT 35/21 A2976 RMK A01 T03520212  RH  044%=      5-min Rain = 0
KST2 201807Z 20010KT 35/22 A2976 RMK A01 T03530220  RH  046%=      5-min Rain = 0
KST2 201808Z 22011KT 36/22 A2976 RMK A01 T03550223  RH  047%=      5-min Rain = 0
KST2 201809Z 22009KT 36/22 A2976 RMK A01 T03560222  RH  046%=      5-min Rain = 0
KST2 201810Z 20008KT 35/22 A2976 RMK A01 T03540221  RH  046%=      5-min Rain = 0
KST2 201811Z 20010KT 35/22 A2976 RMK A01 T03540220  RH  046%=      5-min Rain = 0
KST2 201812Z 20009KT 36/21 A2976 RMK A01 T03550213  RH  044%=      5-min Rain = 0
KST2 201813Z 20008KT 36/21 A2976 RMK A01 T03550212  RH  044%=      5-min Rain = 0
KST2 201814Z 20008KT 36/22 A2976 RMK A01 T03550215  RH  044%=      5-min Rain = 0
KST2 201815Z 19008KT 36/22 A2976 RMK A01 T03560215  RH  044%=      5-min Rain = 0
KST2 201816Z 19008KT 36/21 A2976 RMK A01 T03560214  RH  044%=      5-min Rain = 0
KST2 201817Z 21005KT 35/21 A2976 RMK A01 T03540213  RH  044%=      5-min Rain = 0
KST2 201818Z 17004KT 35/21 A2976 RMK A01 T03520214  RH  045%=      5-min Rain = 0
KST2 201819Z 16005KT 35/22 A2975 RMK A01 T03520215  RH  045%=      5-min Rain = 0
KST2 201820Z 16008KT 35/22 A2975 RMK A01 T03530221  RH  046%=      5-min Rain = 0
KST2 201821Z 17008KT 35/22 A2975 RMK A01 T03540221  RH  046%=      5-min Rain = 0
KST2 201822Z 16008KT 36/22 A2975 RMK A01 T03550218  RH  045%=      5-min Rain = 0
KST2 201823Z 17006KT 35/22 A2975 RMK A01 T03540220  RH  046%=      5-min Rain = 0
KST2 201824Z 20009KT 35/22 A2975 RMK A01 T03540220  RH  046%=      5-min Rain = 0
KST2 201825Z 21009KT 36/22 A2975 RMK A01 T03550216  RH  045%=      5-min Rain = 0
KST2 201826Z 21009KT 36/22 A2975 RMK A01 T03550219  RH  045%=      5-min Rain = 0
KST2 201827Z 20009KT 36/22 A2975 RMK A01 T03560219  RH  045%=      5-min Rain = 0
KST2 201828Z 19009KT 36/22 A2975 RMK A01 T03570215  RH  044%=      5-min Rain = 0
KST2 201829Z 18007KT 36/21 A2975 RMK A01 T03570212  RH  043%=      5-min Rain = 0
KST2 201830Z 17007KT 36/21 A2975 RMK A01 T03570212  RH  043%=      5-min Rain = 0
KST2 201831Z 20008KT 36/22 A2975 RMK A01 T03570215  RH  044%=      5-min Rain = 0
KST2 201832Z 22009KT 36/22 A2975 RMK A01 T03600216  RH  043%=      5-min Rain = 0
KST2 201833Z 22010KT 36/22 A2975 RMK A01 T03600216  RH  043%=      5-min Rain = 0
KST2 201834Z 23010KT 36/22 A2975 RMK A01 T03600215  RH  043%=      5-min Rain = 0
KST2 201835Z 23009KT 36/21 A2975 RMK A01 T03600209  RH  042%=      5-min Rain = 0
KST2 201836Z 21010KT 36/21 A2975 RMK A01 T03590213  RH  043%=      5-min Rain = 0
KST2 201837Z 21009KT 36/21 A2975 RMK A01 T03590212  RH  042%=      5-min Rain = 0
KST2 201838Z 20011KT 36/21 A2975 RMK A01 T03590212  RH  042%=      5-min Rain = 0
KST2 201839Z 20011KT 36/21 A2975 RMK A01 T03600212  RH  042%=      5-min Rain = 0
KST2 201840Z 20010KT 36/21 A2975 RMK A01 T03610213  RH  042%=      5-min Rain = 0
KST2 201841Z 20011KT 36/22 A2975 RMK A01 T03630218  RH  043%=      5-min Rain = 0
KST2 201842Z 21011KT 36/22 A2975 RMK A01 T03640220  RH  044%=      5-min Rain = 0
KST2 201843Z 22009KT 37/22 A2975 RMK A01 T03650220  RH  043%=      5-min Rain = 0
KST2 201844Z 22008KT 36/22 A2975 RMK A01 T03630218  RH  043%=      5-min Rain = 0
KST2 201845Z 21009KT 36/22 A2975 RMK A01 T03610215  RH  043%=      5-min Rain = 0
KST2 201846Z 19008KT 36/22 A2975 RMK A01 T03610215  RH  043%=      5-min Rain = 0
KST2 201847Z 19009KT 36/21 A2975 RMK A01 T03600212  RH  042%=      5-min Rain = 0
KST2 201848Z 18006KT 36/22 A2975 RMK A01 T03600215  RH  043%=      5-min Rain = 0
KST2 201849Z 19008KT 36/22 A2975 RMK A01 T03610217  RH  044%=      5-min Rain = 0
KST2 201850Z 19009KT 36/22 A2975 RMK A01 T03640224  RH  045%=      5-min Rain = 0
KST2 201851Z 20012KT 37/21 A2975 RMK A01 T03670209  RH  040%=      5-min Rain = 0
KST2 201852Z 19012KT 37/20 A2975 RMK A01 T03670202  RH  039%=      5-min Rain = 0
KST2 201853Z 21010KT 37/20 A2975 RMK A01 T03670199  RH  038%=      5-min Rain = 0
KST2 201854Z 21008KT 37/20 A2975 RMK A01 T03660198  RH  037%=      5-min Rain = 0
KST2 201855Z 19008KT 37/20 A2975 RMK A01 T03650200  RH  038%=      5-min Rain = 0
KST2 201856Z 18008KT 37/20 A2975 RMK A01 T03660203  RH  039%=      5-min Rain = 0
KST2 201857Z 18010KT 37/21 A2975 RMK A01 T03680213  RH  041%=      5-min Rain = 0
KST2 201858Z 18010KT 37/21 A2975 RMK A01 T03710209  RH  039%=      5-min Rain = 0
KST2 201859Z 18007KT 37/20 A2975 RMK A01 T03690204  RH  038%=      5-min Rain = 0
KST2 201900Z 18007KT 37/21 A2975 RMK A01 T03670208  RH  040%=      5-min Rain = 0
KST2 201901Z 19010KT 37/21 A2974 RMK A01 T03670210  RH  040%=      5-min Rain = 0
KST2 201902Z 19009KT 37/21 A2974 RMK A01 T03680205  RH  039%=      5-min Rain = 0
KST2 201903Z 20007KT 37/21 A2974 RMK A01 T03680207  RH  039%=      5-min Rain = 0
KST2 201904Z 21009KT 37/21 A2974 RMK A01 T03680210  RH  040%=      5-min Rain = 0
KST2 201905Z 21007KT 37/21 A2974 RMK A01 T03690208  RH  039%=      5-min Rain = 0
KST2 201906Z 18009KT 37/21 A2974 RMK A01 T03690206  RH  039%=      5-min Rain = 0
KST2 201907Z 19010KT 37/20 A2974 RMK A01 T03690204  RH  038%=      5-min Rain = 0
KST2 201908Z 17009KT 37/20 A2974 RMK A01 T03700204  RH  038%=      5-min Rain = 0
KST2 201909Z 17007KT 37/21 A2974 RMK A01 T03700207  RH  039%=      5-min Rain = 0
KST2 201910Z 17008KT 37/21 A2974 RMK A01 T03690212  RH  040%=      5-min Rain = 0
KST2 201911Z 20008KT 37/21 A2974 RMK A01 T03700213  RH  040%=      5-min Rain = 0
KST2 201912Z 20007KT 37/21 A2974 RMK A01 T03710208  RH  039%=      5-min Rain = 0
KST2 201913Z 20008KT 37/21 A2974 RMK A01 T03710212  RH  040%=      5-min Rain = 0
KST2 201914Z 19009KT 37/22 A2974 RMK A01 T03730216  RH  040%=      5-min Rain = 0
KST2 201915Z 20008KT 37/22 A2974 RMK A01 T03740215  RH  040%=      5-min Rain = 0
KST2 201916Z 20009KT 38/21 A2974 RMK A01 T03750211  RH  039%=      5-min Rain = 0
KST2 201917Z 20008KT 38/21 A2974 RMK A01 T03750211  RH  039%=      5-min Rain = 0
KST2 201918Z 19008KT 37/21 A2974 RMK A01 T03740212  RH  039%=      5-min Rain = 0
KST2 201919Z 20010KT 38/21 A2974 RMK A01 T03750214  RH  039%=      5-min Rain = 0
KST2 201920Z 21010KT 38/21 A2974 RMK A01 T03760212  RH  039%=      5-min Rain = 0
KST2 201921Z 21008KT 38/21 A2974 RMK A01 T03760209  RH  038%=      5-min Rain = 0
KST2 201922Z 21011KT 38/20 A2974 RMK A01 T03750203  RH  037%=      5-min Rain = 0
KST2 201923Z 22009KT 37/21 A2974 RMK A01 T03740207  RH  038%=      5-min Rain = 0
KST2 201924Z 21009KT 38/20 A2974 RMK A01 T03750199  RH  036%=      5-min Rain = 0
KST2 201925Z 19009KT 38/20 A2974 RMK A01 T03750199  RH  036%=      5-min Rain = 0
KST2 201926Z 19013KT 37/20 A2974 RMK A01 T03740204  RH  037%=      5-min Rain = 0
KST2 201927Z 19011KT 38/20 A2974 RMK A01 T03750204  RH  037%=      5-min Rain = 0
KST2 201928Z 19010KT 38/21 A2974 RMK A01 T03750210  RH  039%=      5-min Rain = 0
KST2 201929Z 17010KT 38/21 A2974 RMK A01 T03750212  RH  039%=      5-min Rain = 0
KST2 201930Z 18008KT 38/21 A2974 RMK A01 T03750214  RH  040%=      5-min Rain = 0
KST2 201931Z 19009KT 37/21 A2974 RMK A01 T03740212  RH  039%=      5-min Rain = 0
KST2 201932Z 19008KT 37/21 A2974 RMK A01 T03740209  RH  038%=      5-min Rain = 0
KST2 201933Z 19008KT 37/21 A2974 RMK A01 T03730212  RH  039%=      5-min Rain = 0
KST2 201934Z 19011KT 37/22 A2974 RMK A01 T03740216  RH  040%=      5-min Rain = 0
KST2 201935Z 20011KT 38/22 A2974 RMK A01 T03760217  RH  040%=      5-min Rain = 0
KST2 201936Z 18011KT 38/22 A2974 RMK A01 T03770218  RH  040%=      5-min Rain = 0
KST2 201937Z 19010KT 38/21 A2974 RMK A01 T03780212  RH  038%=      5-min Rain = 0
KST2 201938Z 18010KT 38/21 A2974 RMK A01 T03770210  RH  038%=      5-min Rain = 0
KST2 201939Z 18009KT 38/21 A2974 RMK A01 T03760209  RH  038%=      5-min Rain = 0
KST2 201940Z 19006KT 38/21 A2974 RMK A01 T03750207  RH  038%=      5-min Rain = 0
KST2 201941Z 17006KT 38/21 A2974 RMK A01 T03750207  RH  038%=      5-min Rain = 0
KST2 201942Z 18005KT 37/21 A2974 RMK A01 T03740208  RH  038%=      5-min Rain = 0
KST2 201943Z 17009KT 38/22 A2974 RMK A01 T03750216  RH  040%=      5-min Rain = 0
KST2 201944Z 19009KT 38/21 A2974 RMK A01 T03780214  RH  039%=      5-min Rain = 0
KST2 201945Z 20010KT 38/21 A2974 RMK A01 T03790206  RH  037%=      5-min Rain = 0
KST2 201946Z 21011KT 38/21 A2974 RMK A01 T03790205  RH  037%=      5-min Rain = 0
KST2 201947Z 20010KT 38/21 A2974 RMK A01 T03790205  RH  037%=      5-min Rain = 0
KST2 201948Z 20012KT 38/21 A2974 RMK A01 T03800206  RH  037%=      5-min Rain = 0
KST2 201949Z 20013KT 38/19 A2974 RMK A01 T03810194  RH  034%=      5-min Rain = 0
KST2 201950Z 20014KT 38/19 A2974 RMK A01 T03810188  RH  032%=      5-min Rain = 0
KST2 201951Z 20012KT 38/19 A2974 RMK A01 T03810187  RH  032%=      5-min Rain = 0
KST2 201952Z 19011KT 38/20 A2974 RMK A01 T03820195  RH  034%=      5-min Rain = 0
KST2 201953Z 20012KT 38/19 A2974 RMK A01 T03830194  RH  033%=      5-min Rain = 0
KST2 201954Z 19009KT 38/19 A2974 RMK A01 T03830193  RH  033%=      5-min Rain = 0
KST2 201955Z 19011KT 38/20 A2974 RMK A01 T03840196  RH  034%=      5-min Rain = 0
KST2 201956Z 18011KT 39/21 A2974 RMK A01 T03850205  RH  035%=      5-min Rain = 0
KST2 201957Z 17013KT 38/21 A2973 RMK A01 T03840208  RH  036%=      5-min Rain = 0
KST2 201958Z 17012KT 38/21 A2973 RMK A01 T03820211  RH  037%=      5-min Rain = 0
KST2 201959Z 18012KT 38/22 A2973 RMK A01 T03820216  RH  039%=      5-min Rain = 0
KST2 202000Z 19013KT 38/22 A2973 RMK A01 T03820215  RH  038%=      5-min Rain = 0
KST2 202001Z 20012KT 38/21 A2974 RMK A01 T03820211  RH  037%=      5-min Rain = 0
KST2 202002Z 21011KT 38/20 A2974 RMK A01 T03820199  RH  035%=      5-min Rain = 0
KST2 202003Z 21011KT 38/20 A2974 RMK A01 T03820197  RH  034%=      5-min Rain = 0
KST2 202004Z 22008KT 38/20 A2973 RMK A01 T03810196  RH  034%=      5-min Rain = 0
KST2 202005Z 20007KT 38/20 A2973 RMK A01 T03810198  RH  035%=      5-min Rain = 0
KST2 202006Z 20011KT 38/20 A2973 RMK A01 T03820196  RH  034%=      5-min Rain = 0
KST2 202007Z 19012KT 38/20 A2973 RMK A01 T03830195  RH  034%=      5-min Rain = 0
KST2 202008Z 20013KT 38/19 A2973 RMK A01 T03840192  RH  033%=      5-min Rain = 0
KST2 202009Z 20012KT 38/19 A2973 RMK A01 T03830190  RH  033%=      5-min Rain = 0
KST2 202010Z 20013KT 38/19 A2973 RMK A01 T03830193  RH  033%=      5-min Rain = 0
KST2 202011Z 20011KT 38/20 A2973 RMK A01 T03830195  RH  034%=      5-min Rain = 0
KST2 202012Z 18014KT 38/20 A2973 RMK A01 T03830196  RH  034%=      5-min Rain = 0
KST2 202013Z 18012KT 38/19 A2973 RMK A01 T03840185  RH  031%=      5-min Rain = 0
KST2 202014Z 18013KT 38/19 A2973 RMK A01 T03830189  RH  032%=      5-min Rain = 0
KST2 202015Z 17010KT 38/19 A2973 RMK A01 T03830192  RH  033%=      5-min Rain = 0
KST2 202016Z 16009KT 38/19 A2973 RMK A01 T03840192  RH  033%=      5-min Rain = 0
KST2 202017Z 17013KT 38/20 A2973 RMK A01 T03840198  RH  034%=      5-min Rain = 0
KST2 202018Z 18011KT 38/20 A2973 RMK A01 T03840196  RH  034%=      5-min Rain = 0
KST2 202019Z 16010KT 38/20 A2973 RMK A01 T03830201  RH  035%=      5-min Rain = 0
KST2 202020Z 18011KT 38/21 A2973 RMK A01 T03840205  RH  036%=      5-min Rain = 0
KST2 202021Z 17009KT 39/20 A2973 RMK A01 T03850203  RH  035%=      5-min Rain = 0
KST2 202022Z 16012KT 39/20 A2973 RMK A01 T03850202  RH  035%=      5-min Rain = 0
KST2 202023Z 18012KT 38/20 A2973 RMK A01 T03840204  RH  035%=      5-min Rain = 0
KST2 202024Z 17012KT 38/20 A2973 RMK A01 T03820203  RH  035%=      5-min Rain = 0
KST2 202025Z 17010KT 38/20 A2973 RMK A01 T03820203  RH  035%=      5-min Rain = 0
KST2 202026Z 19011KT 38/21 A2973 RMK A01 T03820206  RH  036%=      5-min Rain = 0
KST2 202027Z 18008KT 38/21 A2973 RMK A01 T03820207  RH  037%=      5-min Rain = 0
KST2 202028Z 20009KT 38/20 A2973 RMK A01 T03830203  RH  035%=      5-min Rain = 0
KST2 202029Z 21011KT 38/19 A2973 RMK A01 T03830190  RH  033%=      5-min Rain = 0
KST2 202030Z 19010KT 38/19 A2973 RMK A01 T03830188  RH  032%=      5-min Rain = 0
KST2 202031Z 19012KT 39/19 A2973 RMK A01 T03850190  RH  032%=      5-min Rain = 0
KST2 202032Z 19013KT 39/18 A2972 RMK A01 T03860184  RH  031%=      5-min Rain = 0
KST2 202033Z 19013KT 39/19 A2972 RMK A01 T03870185  RH  031%=      5-min Rain = 0
KST2 202034Z 19014KT 39/19 A2972 RMK A01 T03880185  RH  031%=      5-min Rain = 0
KST2 202035Z 19013KT 39/19 A2972 RMK A01 T03870191  RH  032%=      5-min Rain = 0
KST2 202036Z 19016KT 39/19 A2972 RMK A01 T03880193  RH  032%=      5-min Rain = 0
KST2 202037Z 18015KT 39/19 A2972 RMK A01 T03880189  RH  031%=      5-min Rain = 0
KST2 202038Z 19014KT 39/19 A2972 RMK A01 T03870188  RH  031%=      5-min Rain = 0
KST2 202039Z 19014KT 39/18 A2972 RMK A01 T03870184  RH  031%=      5-min Rain = 0
KST2 202040Z 19012KT 39/19 A2972 RMK A01 T03860187  RH  032%=      5-min Rain = 0
KST2 202041Z 18012KT 39/19 A2972 RMK A01 T03860191  RH  032%=      5-min Rain = 0
KST2 202042Z 18012KT 39/19 A2972 RMK A01 T03870193  RH  032%=      5-min Rain = 0
KST2 202043Z 17012KT 39/20 A2972 RMK A01 T03870195  RH  033%=      5-min Rain = 0
KST2 202044Z 16013KT 39/20 A2972 RMK A01 T03880199  RH  034%=      5-min Rain = 0
KST2 202045Z 16013KT 39/20 A2972 RMK A01 T03870201  RH  034%=      5-min Rain = 0
KST2 202046Z 16013KT 39/21 A2972 RMK A01 T03870206  RH  035%=      5-min Rain = 0
KST2 202047Z 17017KT 39/20 A2972 RMK A01 T03870200  RH  034%=      5-min Rain = 0
KST2 202048Z 18015KT 39/19 A2972 RMK A01 T03850190  RH  032%=      5-min Rain = 0
KST2 202049Z 18010KT 39/19 A2972 RMK A01 T03850185  RH  031%=      5-min Rain = 0
KST2 202050Z 19012KT 39/19 A2972 RMK A01 T03860191  RH  032%=      5-min Rain = 0
KST2 202051Z 19012KT 39/19 A2972 RMK A01 T03870191  RH  032%=      5-min Rain = 0
KST2 202052Z 17014KT 39/19 A2972 RMK A01 T03870191  RH  032%=      5-min Rain = 0
KST2 202053Z 17014KT 39/19 A2972 RMK A01 T03870191  RH  032%=      5-min Rain = 0
KST2 202054Z 16014KT 39/19 A2972 RMK A01 T03860190  RH  032%=      5-min Rain = 0
KST2 202055Z 17012KT 39/20 A2972 RMK A01 T03850195  RH  033%=      5-min Rain = 0
KST2 202056Z 17015KT 39/19 A2972 RMK A01 T03860191  RH  032%=      5-min Rain = 0
KST2 202057Z 17012KT 39/19 A2971 RMK A01 T03860194  RH  033%=      5-min Rain = 0
KST2 202058Z 17015KT 39/19 A2971 RMK A01 T03860191  RH  032%=      5-min Rain = 0
KST2 202059Z 18014KT 39/19 A2971 RMK A01 T03860190  RH  032%=      5-min Rain = 0
KST2 202100Z 17013KT 39/19 A2971 RMK A01 T03860194  RH  033%=      5-min Rain = 0
KST2 202101Z 16014KT 39/19 A2971 RMK A01 T03860191  RH  032%=      5-min Rain = 0
KST2 202102Z 16015KT 39/20 A2971 RMK A01 T03860197  RH  033%=      5-min Rain = 0
KST2 202103Z 18015KT 39/20 A2971 RMK A01 T03850196  RH  033%=      5-min Rain = 0
KST2 202104Z 19014KT 39/19 A2971 RMK A01 T03860192  RH  033%=      5-min Rain = 0
KST2 202105Z 18013KT 39/19 A2971 RMK A01 T03860191  RH  032%=      5-min Rain = 0
KST2 202106Z 17012KT 39/20 A2971 RMK A01 T03860195  RH  033%=      5-min Rain = 0
KST2 202107Z 18013KT 39/19 A2971 RMK A01 T03870189  RH  032%=      5-min Rain = 0
KST2 202108Z 18012KT 39/18 A2971 RMK A01 T03870183  RH  030%=      5-min Rain = 0
KST2 202109Z 18012KT 39/19 A2971 RMK A01 T03870191  RH  032%=      5-min Rain = 0
KST2 202110Z 18012KT 39/19 A2971 RMK A01 T03870189  RH  032%=      5-min Rain = 0
KST2 202111Z 18013KT 39/19 A2971 RMK A01 T03870192  RH  032%=      5-min Rain = 0
KST2 202112Z 18013KT 39/19 A2971 RMK A01 T03870188  RH  031%=      5-min Rain = 0
KST2 202113Z 17014KT 39/19 A2971 RMK A01 T03880192  RH  032%=      5-min Rain = 0
KST2 202114Z 18013KT 39/19 A2971 RMK A01 T03880191  RH  032%=      5-min Rain = 0
KST2 202115Z 17015KT 39/19 A2971 RMK A01 T03880187  RH  031%=      5-min Rain = 0
KST2 202116Z 17013KT 39/19 A2971 RMK A01 T03870189  RH  032%=      5-min Rain = 0
KST2 202117Z 18013KT 39/19 A2971 RMK A01 T03870190  RH  032%=      5-min Rain = 0
KST2 202118Z 18011KT 39/19 A2971 RMK A01 T03870191  RH  032%=      5-min Rain = 0
KST2 202119Z 18012KT 39/20 A2971 RMK A01 T03870197  RH  033%=      5-min Rain = 0
KST2 202120Z 18012KT 39/20 A297 RMK A01 T03890200  RH  034%=      5-min Rain = 0
KST2 202121Z 17013KT 39/20 A297 RMK A01 T03890198  RH  033%=      5-min Rain = 0
KST2 202122Z 18010KT 39/20 A2971 RMK A01 T03890197  RH  033%=      5-min Rain = 0
KST2 202123Z 18011KT 39/20 A297 RMK A01 T03890195  RH  033%=      5-min Rain = 0
KST2 202124Z 17012KT 39/19 A297 RMK A01 T03900191  RH  032%=      5-min Rain = 0
KST2 202125Z 18013KT 39/19 A297 RMK A01 T03890185  RH  031%=      5-min Rain = 0
KST2 202126Z 17014KT 39/19 A297 RMK A01 T03890186  RH  031%=      5-min Rain = 0
KST2 202127Z 17015KT 39/18 A297 RMK A01 T03890181  RH  030%=      5-min Rain = 0
KST2 202128Z 17013KT 39/19 A297 RMK A01 T03890185  RH  030%=      5-min Rain = 0
KST2 202129Z 17014KT 39/18 A297 RMK A01 T03890182  RH  030%=      5-min Rain = 0
KST2 202130Z 17015KT 39/18 A297 RMK A01 T03880181  RH  030%=      5-min Rain = 0
KST2 202131Z 17014KT 39/18 A297 RMK A01 T03880181  RH  030%=      5-min Rain = 0
KST2 202132Z 17013KT 39/18 A297 RMK A01 T03880182  RH  030%=      5-min Rain = 0
KST2 202133Z 17014KT 39/18 A297 RMK A01 T03900184  RH  030%=      5-min Rain = 0
KST2 202134Z 18016KT 39/18 A297 RMK A01 T03910175  RH  028%=      5-min Rain = 0
KST2 202135Z 17012KT 39/18 A297 RMK A01 T03890176  RH  029%=      5-min Rain = 0
KST2 202136Z 18011KT 39/18 A297 RMK A01 T03910180  RH  029%=      5-min Rain = 0
KST2 202137Z 18012KT 39/19 A297 RMK A01 T03920186  RH  030%=      5-min Rain = 0
KST2 202138Z 16013KT 39/18 A297 RMK A01 T03930180  RH  029%=      5-min Rain = 0
KST2 202139Z 17015KT 39/18 A297 RMK A01 T03920182  RH  030%=      5-min Rain = 0
KST2 202140Z 17015KT 39/18 A297 RMK A01 T03920177  RH  029%=      5-min Rain = 0
KST2 202141Z 18013KT 39/18 A297 RMK A01 T03910175  RH  028%=      5-min Rain = 0
KST2 202142Z 18013KT 39/18 A297 RMK A01 T03910177  RH  029%=      5-min Rain = 0
KST2 202143Z 17013KT 39/18 A297 RMK A01 T03910183  RH  030%=      5-min Rain = 0
KST2 202144Z 17015KT 39/19 A2969 RMK A01 T03910190  RH  031%=      5-min Rain = 0
KST2 202145Z 16013KT 39/19 A297 RMK A01 T03900194  RH  032%=      5-min Rain = 0
KST2 202146Z 17012KT 39/19 A297 RMK A01 T03890194  RH  032%=      5-min Rain = 0
KST2 202147Z 18011KT 39/19 A297 RMK A01 T03880192  RH  032%=      5-min Rain = 0
KST2 202148Z 17013KT 39/19 A297 RMK A01 T03890191  RH  032%=      5-min Rain = 0
KST2 202149Z 17013KT 39/19 A297 RMK A01 T03900194  RH  032%=      5-min Rain = 0
KST2 202150Z 17014KT 39/19 A2969 RMK A01 T03900194  RH  032%=      5-min Rain = 0
KST2 202151Z 17015KT 39/19 A297 RMK A01 T03890193  RH  032%=      5-min Rain = 0
KST2 202152Z 17014KT 39/19 A297 RMK A01 T03880186  RH  031%=      5-min Rain = 0
KST2 202153Z 17014KT 39/18 A297 RMK A01 T03870183  RH  031%=      5-min Rain = 0
KST2 202154Z 16015KT 39/18 A297 RMK A01 T03870184  RH  031%=      5-min Rain = 0
KST2 202155Z 16016KT 39/18 A2969 RMK A01 T03870183  RH  031%=      5-min Rain = 0
KST2 202156Z 17012KT 39/19 A297 RMK A01 T03870186  RH  031%=      5-min Rain = 0
KST2 202157Z 17013KT 39/18 A297 RMK A01 T03870184  RH  031%=      5-min Rain = 0
KST2 202158Z 16013KT 39/19 A297 RMK A01 T03880189  RH  031%=      5-min Rain = 0
KST2 202159Z 16012KT 39/19 A2969 RMK A01 T03880185  RH  031%=      5-min Rain = 0
KST2 202200Z 16014KT 39/18 A297 RMK A01 T03880184  RH  031%=      5-min Rain = 0
KST2 202201Z 17015KT 39/18 A2969 RMK A01 T03870183  RH  030%=      5-min Rain = 0
KST2 202202Z 16015KT 39/18 A2969 RMK A01 T03870181  RH  030%=      5-min Rain = 0
KST2 202203Z 17014KT 39/18 A2969 RMK A01 T03870178  RH  030%=      5-min Rain = 0
KST2 202204Z 16014KT 39/18 A2969 RMK A01 T03870178  RH  030%=      5-min Rain = 0
KST2 202205Z 17014KT 39/18 A2969 RMK A01 T03870176  RH  029%=      5-min Rain = 0
KST2 202206Z 17016KT 39/18 A2969 RMK A01 T03870176  RH  029%=      5-min Rain = 0
KST2 202207Z 18013KT 39/17 A2969 RMK A01 T03880168  RH  028%=      5-min Rain = 0
KST2 202208Z 17013KT 39/17 A2969 RMK A01 T03900174  RH  028%=      5-min Rain = 0
KST2 202209Z 17015KT 39/18 A2969 RMK A01 T03900178  RH  029%=      5-min Rain = 0
KST2 202210Z 17016KT 39/17 A2969 RMK A01 T03910173  RH  028%=      5-min Rain = 0
KST2 202211Z 17015KT 39/18 A2969 RMK A01 T03910175  RH  028%=      5-min Rain = 0
KST2 202212Z 17016KT 39/17 A2969 RMK A01 T03910173  RH  028%=      5-min Rain = 0
KST2 202213Z 17016KT 39/17 A2969 RMK A01 T03900168  RH  027%=      5-min Rain = 0
KST2 202214Z 16016KT 39/17 A2969 RMK A01 T03890170  RH  028%=      5-min Rain = 0
KST2 202215Z 17014KT 39/17 A2969 RMK A01 T03890171  RH  028%=      5-min Rain = 0
KST2 202216Z 17014KT 39/17 A2969 RMK A01 T03880171  RH  028%=      5-min Rain = 0
KST2 202217Z 16014KT 39/17 A2969 RMK A01 T03890173  RH  028%=      5-min Rain = 0
KST2 202218Z 17013KT 39/17 A2969 RMK A01 T03880174  RH  029%=      5-min Rain = 0
KST2 202219Z 17013KT 39/18 A2969 RMK A01 T03880178  RH  029%=      5-min Rain = 0
KST2 202220Z 17015KT 39/17 A2969 RMK A01 T03890173  RH  028%=      5-min Rain = 0
KST2 202221Z 17014KT 39/17 A2969 RMK A01 T03900171  RH  028%=      5-min Rain = 0
KST2 202222Z 16014KT 39/17 A2969 RMK A01 T03900171  RH  028%=      5-min Rain = 0
KST2 202223Z 17016KT 39/17 A2969 RMK A01 T03890168  RH  027%=      5-min Rain = 0
KST2 202224Z 17013KT 39/17 A2969 RMK A01 T03880169  RH  028%=      5-min Rain = 0
KST2 202225Z 17013KT 39/17 A2969 RMK A01 T03880168  RH  028%=      5-min Rain = 0
KST2 202226Z 16011KT 39/18 A2969 RMK A01 T03890175  RH  029%=      5-min Rain = 0
KST2 202227Z 16013KT 39/18 A2969 RMK A01 T03900176  RH  029%=      5-min Rain = 0
KST2 202228Z 17014KT 39/18 A2969 RMK A01 T03900175  RH  029%=      5-min Rain = 0
KST2 202229Z 17016KT 39/18 A2969 RMK A01 T03890175  RH  029%=      5-min Rain = 0
KST2 202230Z 17012KT 39/18 A2969 RMK A01 T03890177  RH  029%=      5-min Rain = 0
KST2 202231Z 17013KT 39/17 A2969 RMK A01 T03890169  RH  028%=      5-min Rain = 0
KST2 202232Z 17012KT 39/17 A2969 RMK A01 T03890174  RH  028%=      5-min Rain = 0
KST2 202233Z 17014KT 39/18 A2969 RMK A01 T03900176  RH  029%=      5-min Rain = 0
KST2 202234Z 17015KT 39/16 A2969 RMK A01 T03900158  RH  026%=      5-min Rain = 0
KST2 202235Z 18015KT 39/17 A2969 RMK A01 T03900165  RH  027%=      5-min Rain = 0
KST2 202236Z 17013KT 39/17 A2969 RMK A01 T03900170  RH  028%=      5-min Rain = 0
KST2 202237Z 17016KT 39/17 A2969 RMK A01 T03920171  RH  028%=      5-min Rain = 0
KST2 202238Z 17015KT 39/17 A2969 RMK A01 T03910166  RH  027%=      5-min Rain = 0
KST2 202239Z 17014KT 39/17 A2969 RMK A01 T03900168  RH  027%=      5-min Rain = 0
KST2 202240Z 18015KT 39/17 A2969 RMK A01 T03900170  RH  028%=      5-min Rain = 0
KST2 202241Z 18014KT 39/17 A2969 RMK A01 T03900167  RH  027%=      5-min Rain = 0
KST2 202242Z 18014KT 39/17 A2969 RMK A01 T03900172  RH  028%=      5-min Rain = 0
KST2 202243Z 17014KT 39/17 A2969 RMK A01 T03910170  RH  028%=      5-min Rain = 0
KST2 202244Z 17013KT 39/18 A2969 RMK A01 T03910179  RH  029%=      5-min Rain = 0
KST2 202245Z 17014KT 39/18 A2969 RMK A01 T03910181  RH  030%=      5-min Rain = 0
KST2 202246Z 17014KT 39/18 A2969 RMK A01 T03900182  RH  030%=      5-min Rain = 0
KST2 202247Z 17013KT 39/18 A2969 RMK A01 T03890182  RH  030%=      5-min Rain = 0
KST2 202248Z 17013KT 39/18 A2969 RMK A01 T03890182  RH  030%=      5-min Rain = 0
KST2 202249Z 16014KT 39/18 A2969 RMK A01 T03880183  RH  030%=      5-min Rain = 0
KST2 202250Z 17012KT 39/18 A2969 RMK A01 T03880183  RH  030%=      5-min Rain = 0
KST2 202251Z 17012KT 39/19 A2969 RMK A01 T03870186  RH  031%=      5-min Rain = 0
KST2 202252Z 17013KT 39/19 A2969 RMK A01 T03870186  RH  031%=      5-min Rain = 0
KST2 202253Z 18015KT 39/18 A2969 RMK A01 T03870180  RH  030%=      5-min Rain = 0
KST2 202254Z 18016KT 39/18 A2969 RMK A01 T03870176  RH  029%=      5-min Rain = 0
KST2 202255Z 18015KT 39/18 A2969 RMK A01 T03870176  RH  029%=      5-min Rain = 0
KST2 202256Z 18012KT 39/18 A2969 RMK A01 T03880181  RH  030%=      5-min Rain = 0
KST2 202257Z 18012KT 39/19 A2969 RMK A01 T03880185  RH  031%=      5-min Rain = 0
KST2 202258Z 16013KT 39/20 A2969 RMK A01 T03890198  RH  033%=      5-min Rain = 0
KST2 202259Z 16011KT 39/21 A2969 RMK A01 T03890207  RH  035%=      5-min Rain = 0
KST2 202300Z 15011KT 39/21 A2969 RMK A01 T03870212  RH  037%=      5-min Rain = 0
KST2 202301Z 15015KT 39/21 A2969 RMK A01 T03850213  RH  037%=      5-min Rain = 0
KST2 202302Z 15012KT 38/21 A2969 RMK A01 T03830214  RH  038%=      5-min Rain = 0
KST2 202303Z 15013KT 38/22 A2969 RMK A01 T03820215  RH  038%=      5-min Rain = 0
KST2 202304Z 15014KT 38/21 A2969 RMK A01 T03810214  RH  038%=      5-min Rain = 0
KST2 202305Z 16016KT 38/21 A2969 RMK A01 T03810214  RH  038%=      5-min Rain = 0
KST2 202306Z 15014KT 38/21 A2969 RMK A01 T03790212  RH  038%=      5-min Rain = 0
KST2 202307Z 15014KT 38/21 A2969 RMK A01 T03780212  RH  038%=      5-min Rain = 0
KST2 202308Z 15016KT 38/21 A2968 RMK A01 T03780212  RH  038%=      5-min Rain = 0
KST2 202309Z 15015KT 38/21 A2968 RMK A01 T03780211  RH  038%=      5-min Rain = 0
KST2 202310Z 15012KT 38/22 A2969 RMK A01 T03780217  RH  039%=      5-min Rain = 0
KST2 202311Z 15013KT 38/22 A2969 RMK A01 T03790217  RH  040%=      5-min Rain = 0
KST2 202312Z 14013KT 38/22 A2968 RMK A01 T03790218  RH  040%=      5-min Rain = 0
KST2 202313Z 14013KT 38/22 A2969 RMK A01 T03780216  RH  039%=      5-min Rain = 0
KST2 202314Z 14012KT 38/22 A2968 RMK A01 T03780216  RH  039%=      5-min Rain = 0
KST2 202315Z 15014KT 38/21 A2968 RMK A01 T03770214  RH  039%=      5-min Rain = 0
KST2 202316Z 15013KT 38/21 A2968 RMK A01 T03770214  RH  039%=      5-min Rain = 0
KST2 202317Z 15012KT 38/22 A2968 RMK A01 T03770216  RH  040%=      5-min Rain = 0
KST2 202318Z 15014KT 38/22 A2968 RMK A01 T03770217  RH  040%=      5-min Rain = 0
KST2 202319Z 15013KT 38/22 A2968 RMK A01 T03770216  RH  040%=      5-min Rain = 0
KST2 202320Z 16015KT 38/21 A2968 RMK A01 T03770211  RH  038%=      5-min Rain = 0
KST2 202321Z 16012KT 38/21 A2968 RMK A01 T03770207  RH  038%=      5-min Rain = 0
KST2 202322Z 16013KT 38/21 A2968 RMK A01 T03760207  RH  038%=      5-min Rain = 0
KST2 202323Z 16012KT 38/20 A2968 RMK A01 T03760204  RH  037%=      5-min Rain = 0
KST2 202324Z 15014KT 38/21 A2968 RMK A01 T03770212  RH  039%=      5-min Rain = 0
KST2 202325Z 14014KT 38/22 A2968 RMK A01 T03770217  RH  040%=      5-min Rain = 0
KST2 202326Z 15012KT 38/22 A2968 RMK A01 T03770219  RH  040%=      5-min Rain = 0
KST2 202327Z 15013KT 38/22 A2968 RMK A01 T03760220  RH  041%=      5-min Rain = 0
KST2 202328Z 14014KT 38/22 A2968 RMK A01 T03750221  RH  041%=      5-min Rain = 0
KST2 202329Z 14014KT 38/22 A2968 RMK A01 T03750221  RH  041%=      5-min Rain = 0
KST2 202330Z 15016KT 37/22 A2968 RMK A01 T03740217  RH  040%=      5-min Rain = 0
KST2 202331Z 15014KT 37/22 A2968 RMK A01 T03730217  RH  040%=      5-min Rain = 0
KST2 202332Z 15016KT 37/22 A2968 RMK A01 T03730215  RH  040%=      5-min Rain = 0
KST2 202333Z 15015KT 37/21 A2968 RMK A01 T03730212  RH  039%=      5-min Rain = 0
KST2 202334Z 15016KT 37/21 A2968 RMK A01 T03730211  RH  039%=      5-min Rain = 0
KST2 202335Z 16017KT 37/21 A2968 RMK A01 T03730211  RH  039%=      5-min Rain = 0
KST2 202336Z 16018KT 37/21 A2968 RMK A01 T03730209  RH  039%=      5-min Rain = 0
KST2 202337Z 16016KT 37/21 A2968 RMK A01 T03720209  RH  039%=      5-min Rain = 0
KST2 202338Z 15013KT 37/21 A2968 RMK A01 T03720212  RH  040%=      5-min Rain = 0
KST2 202339Z 15015KT 37/21 A2968 RMK A01 T03730214  RH  040%=      5-min Rain = 0
KST2 202340Z 16015KT 37/21 A2968 RMK A01 T03730210  RH  039%=      5-min Rain = 0
KST2 202341Z 16017KT 37/21 A2968 RMK A01 T03720210  RH  039%=      5-min Rain = 0
KST2 202342Z 15017KT 37/21 A2968 RMK A01 T03720209  RH  039%=      5-min Rain = 0
KST2 202343Z 15014KT 37/21 A2968 RMK A01 T03720209  RH  039%=      5-min Rain = 0
KST2 202344Z 15015KT 37/21 A2968 RMK A01 T03720209  RH  039%=      5-min Rain = 0
KST2 202345Z 15015KT 37/21 A2968 RMK A01 T03720211  RH  039%=      5-min Rain = 0
KST2 202346Z 15014KT 37/21 A2968 RMK A01 T03710211  RH  040%=      5-min Rain = 0
KST2 202347Z 15015KT 37/21 A2968 RMK A01 T03710212  RH  040%=      5-min Rain = 0
KST2 202348Z 15016KT 37/21 A2968 RMK A01 T03710212  RH  040%=      5-min Rain = 0
KST2 202349Z 15014KT 37/21 A2968 RMK A01 T03710213  RH  040%=      5-min Rain = 0
KST2 202350Z 15013KT 37/22 A2968 RMK A01 T03700216  RH  041%=      5-min Rain = 0
KST2 202351Z 15015KT 37/22 A2968 RMK A01 T03700215  RH  041%=      5-min Rain = 0
KST2 202352Z 15017KT 37/21 A2968 RMK A01 T03690213  RH  041%=      5-min Rain = 0
KST2 202353Z 15015KT 37/21 A2968 RMK A01 T03690214  RH  041%=      5-min Rain = 0
KST2 202354Z 15014KT 37/22 A2968 RMK A01 T03690215  RH  041%=      5-min Rain = 0
KST2 202355Z 15013KT 37/22 A2968 RMK A01 T03680216  RH  041%=      5-min Rain = 0
KST2 202356Z 14014KT 37/22 A2968 RMK A01 T03690218  RH  042%=      5-min Rain = 0
KST2 202357Z 15015KT 37/22 A2968 RMK A01 T03680217  RH  042%=      5-min Rain = 0
KST2 202358Z 15015KT 37/22 A2968 RMK A01 T03680215  RH  041%=      5-min Rain = 0
KST2 202359Z 15015KT 37/22 A2968 RMK A01 T03670216  RH  042%=      5-min Rain = 0
KST2 210000Z 15016KT 37/22 A2968 RMK A01 T03670215  RH  041%=      5-min Rain = 0
KST2 210001Z 15014KT 37/22 A2968 RMK A01 T03670215  RH  041%=      5-min Rain = 0
KST2 210002Z 14012KT 37/22 A2968 RMK A01 T03670218  RH  042%=      5-min Rain = 0
KST2 210003Z 14015KT 37/22 A2968 RMK A01 T03670217  RH  042%=      5-min Rain = 0
KST2 210004Z 15014KT 37/22 A2968 RMK A01 T03660216  RH  042%=      5-min Rain = 0
KST2 210005Z 15014KT 37/22 A2968 RMK A01 T03660218  RH  043%=      5-min Rain = 0
KST2 210006Z 15014KT 37/22 A2968 RMK A01 T03660218  RH  042%=      5-min Rain = 0
KST2 210007Z 15013KT 37/22 A2968 RMK A01 T03660221  RH  043%=      5-min Rain = 0
KST2 210008Z 15012KT 37/22 A2969 RMK A01 T03660221  RH  043%=      5-min Rain = 0
KST2 210009Z 15012KT 37/22 A2969 RMK A01 T03660221  RH  043%=      5-min Rain = 0
KST2 210010Z 15012KT 37/22 A2969 RMK A01 T03650222  RH  044%=      5-min Rain = 0
KST2 210011Z 15011KT 37/22 A2969 RMK A01 T03650223  RH  044%=      5-min Rain = 0
KST2 210012Z 15012KT 37/22 A2969 RMK A01 T03650223  RH  044%=      5-min Rain = 0
KST2 210013Z 15013KT 36/22 A2969 RMK A01 T03640223  RH  044%=      5-min Rain = 0
KST2 210014Z 15014KT 36/22 A2969 RMK A01 T03640222  RH  044%=      5-min Rain = 0
KST2 210015Z 14013KT 36/22 A2969 RMK A01 T03630222  RH  044%=      5-min Rain = 0
KST2 210016Z 15013KT 36/22 A2969 RMK A01 T03630221  RH  044%=      5-min Rain = 0
KST2 210017Z 15015KT 36/22 A2969 RMK A01 T03630221  RH  044%=      5-min Rain = 0
KST2 210018Z 15014KT 36/22 A2969 RMK A01 T03630220  RH  044%=      5-min Rain = 0
KST2 210019Z 15013KT 36/22 A2969 RMK A01 T03630221  RH  044%=      5-min Rain = 0
KST2 210020Z 15013KT 36/22 A2969 RMK A01 T03630221  RH  044%=      5-min Rain = 0
KST2 210021Z 15012KT 36/22 A2969 RMK A01 T03630221  RH  044%=      5-min Rain = 0
KST2 210022Z 15011KT 36/22 A2969 RMK A01 T03620221  RH  044%=      5-min Rain = 0
KST2 210023Z 15012KT 36/22 A2969 RMK A01 T03620220  RH  044%=      5-min Rain = 0
KST2 210024Z 15013KT 36/22 A2969 RMK A01 T03620220  RH  044%=      5-min Rain = 0
KST2 210025Z 15013KT 36/22 A2969 RMK A01 T03610218  RH  044%=      5-min Rain = 0
KST2 210026Z 15012KT 36/22 A2969 RMK A01 T03610219  RH  044%=      5-min Rain = 0
KST2 210027Z 16011KT 36/22 A2969 RMK A01 T03610219  RH  044%=      5-min Rain = 0
KST2 210028Z 16011KT 36/22 A2969 RMK A01 T03600219  RH  044%=      5-min Rain = 0
KST2 210029Z 16012KT 36/22 A2969 RMK A01 T03600218  RH  044%=      5-min Rain = 0
KST2 210030Z 16014KT 36/22 A2969 RMK A01 T03600215  RH  043%=      5-min Rain = 0
KST2 210031Z 15013KT 36/21 A2969 RMK A01 T03600214  RH  043%=      5-min Rain = 0
KST2 210032Z 16012KT 36/22 A2969 RMK A01 T03600215  RH  043%=      5-min Rain = 0
KST2 210033Z 15012KT 36/22 A2969 RMK A01 T03600216  RH  043%=      5-min Rain = 0
KST2 210034Z 16013KT 36/22 A2969 RMK A01 T03600215  RH  043%=      5-min Rain = 0
KST2 210035Z 15012KT 36/22 A2969 RMK A01 T03600216  RH  043%=      5-min Rain = 0
KST2 210036Z 16013KT 36/22 A2969 RMK A01 T03590215  RH  043%=      5-min Rain = 0
KST2 210037Z 15012KT 36/22 A2969 RMK A01 T03590215  RH  043%=      5-min Rain = 0
KST2 210038Z 15013KT 36/22 A2969 RMK A01 T03580215  RH  043%=      5-min Rain = 0
KST2 210039Z 15010KT 36/22 A2969 RMK A01 T03580216  RH  044%=      5-min Rain = 0
KST2 210040Z 15011KT 36/22 A2969 RMK A01 T03580217  RH  044%=      5-min Rain = 0
KST2 210041Z 15012KT 36/22 A2969 RMK A01 T03570216  RH  044%=      5-min Rain = 0
KST2 210042Z 15013KT 36/21 A2969 RMK A01 T03570214  RH  044%=      5-min Rain = 0
KST2 210043Z 15012KT 36/22 A2969 RMK A01 T03560216  RH  044%=      5-min Rain = 0
KST2 210044Z 15012KT 36/22 A2969 RMK A01 T03560215  RH  044%=      5-min Rain = 0
KST2 210045Z 15014KT 36/22 A2969 RMK A01 T03550215  RH  044%=      5-min Rain = 0
KST2 210046Z 15011KT 36/22 A2969 RMK A01 T03550215  RH  044%=      5-min Rain = 0
KST2 210047Z 15011KT 36/22 A2969 RMK A01 T03550217  RH  045%=      5-min Rain = 0
KST2 210048Z 15012KT 36/22 A2969 RMK A01 T03550217  RH  045%=      5-min Rain = 0
KST2 210049Z 15010KT 35/22 A2969 RMK A01 T03540218  RH  045%=      5-min Rain = 0
KST2 210050Z 15011KT 35/22 A2969 RMK A01 T03530218  RH  046%=      5-min Rain = 0
KST2 210051Z 15011KT 35/22 A2969 RMK A01 T03520219  RH  046%=      5-min Rain = 0
KST2 210052Z 15012KT 35/22 A2969 RMK A01 T03520218  RH  046%=      5-min Rain = 0
KST2 210053Z 15011KT 35/22 A2969 RMK A01 T03510217  RH  046%=      5-min Rain = 0
KST2 210054Z 15011KT 35/22 A2969 RMK A01 T03510218  RH  046%=      5-min Rain = 0
KST2 210055Z 15011KT 35/22 A2969 RMK A01 T03500218  RH  046%=      5-min Rain = 0
KST2 210056Z 15011KT 35/22 A2969 RMK A01 T03500218  RH  047%=      5-min Rain = 0
KST2 210057Z 15012KT 35/22 A2969 RMK A01 T03490218  RH  046%=      5-min Rain = 0
KST2 210058Z 15011KT 35/22 A2969 RMK A01 T03490217  RH  046%=      5-min Rain = 0
KST2 210059Z 15011KT 35/22 A2969 RMK A01 T03490218  RH  047%=      5-min Rain = 0
KST2 210100Z 15011KT 35/22 A2969 RMK A01 T03480217  RH  047%=      5-min Rain = 0
KST2 210101Z 15011KT 35/22 A2969 RMK A01 T03480217  RH  047%=      5-min Rain = 0
KST2 210102Z 15010KT 35/22 A2969 RMK A01 T03480218  RH  047%=      5-min Rain = 0
KST2 210103Z 15011KT 35/22 A2969 RMK A01 T03470217  RH  047%=      5-min Rain = 0
KST2 210104Z 16011KT 35/22 A2969 RMK A01 T03470216  RH  047%=      5-min Rain = 0
KST2 210105Z 16010KT 35/22 A2969 RMK A01 T03470216  RH  047%=      5-min Rain = 0
KST2 210106Z 15010KT 35/22 A2969 RMK A01 T03460216  RH  047%=      5-min Rain = 0
KST2 210107Z 15011KT 35/21 A2969 RMK A01 T03460214  RH  046%=      5-min Rain = 0
KST2 210108Z 15010KT 35/22 A2969 RMK A01 T03460215  RH  046%=      5-min Rain = 0
KST2 210109Z 16010KT 35/22 A2969 RMK A01 T03460215  RH  047%=      5-min Rain = 0
KST2 210110Z 16010KT 35/22 A2969 RMK A01 T03450215  RH  047%=      5-min Rain = 0
KST2 210111Z 15011KT 35/22 A2969 RMK A01 T03450215  RH  047%=      5-min Rain = 0
KST2 210112Z 15011KT 35/22 A2969 RMK A01 T03450215  RH  047%=      5-min Rain = 0
KST2 210113Z 15011KT 34/22 A2969 RMK A01 T03440216  RH  047%=      5-min Rain = 0
KST2 210114Z 15012KT 34/22 A2969 RMK A01 T03430215  RH  047%=      5-min Rain = 0
KST2 210115Z 16011KT 34/21 A2969 RMK A01 T03430214  RH  047%=      5-min Rain = 0
KST2 210116Z 16012KT 34/22 A2969 RMK A01 T03430215  RH  047%=      5-min Rain = 0
KST2 210117Z 16011KT 34/21 A2969 RMK A01 T03420213  RH  047%=      5-min Rain = 0
KST2 210118Z 16012KT 34/21 A2969 RMK A01 T03420214  RH  047%=      5-min Rain = 0
KST2 210119Z 15012KT 34/21 A2969 RMK A01 T03420213  RH  047%=      5-min Rain = 0
KST2 210120Z 15011KT 34/21 A2969 RMK A01 T03420214  RH  047%=      5-min Rain = 0
KST2 210121Z 15010KT 34/21 A2969 RMK A01 T03410213  RH  047%=      5-min Rain = 0
KST2 210122Z 15010KT 34/21 A2969 RMK A01 T03410214  RH  048%=      5-min Rain = 0
KST2 210123Z 15010KT 34/21 A2969 RMK A01 T03400214  RH  048%=      5-min Rain = 0
KST2 210124Z 15011KT 34/21 A2969 RMK A01 T03390214  RH  048%=      5-min Rain = 0
KST2 210125Z 15010KT 34/21 A2969 RMK A01 T03390214  RH  048%=      5-min Rain = 0
KST2 210126Z 15011KT 34/21 A2969 RMK A01 T03390214  RH  048%=      5-min Rain = 0
KST2 210127Z 16011KT 34/21 A2969 RMK A01 T03390214  RH  048%=      5-min Rain = 0
KST2 210128Z 16010KT 34/22 A2969 RMK A01 T03380215  RH  049%=      5-min Rain = 0
KST2 210129Z 16011KT 34/21 A2969 RMK A01 T03370214  RH  049%=      5-min Rain = 0
KST2 210130Z 15010KT 34/22 A2969 RMK A01 T03360215  RH  049%=      5-min Rain = 0
KST2 210131Z 16011KT 34/22 A2969 RMK A01 T03360215  RH  049%=      5-min Rain = 0
KST2 210132Z 15009KT 34/22 A2969 RMK A01 T03350216  RH  050%=      5-min Rain = 0
KST2 210133Z 16010KT 34/22 A2969 RMK A01 T03350216  RH  050%=      5-min Rain = 0
KST2 210134Z 16010KT 33/22 A2969 RMK A01 T03340216  RH  050%=      5-min Rain = 0
KST2 210135Z 15011KT 33/22 A2969 RMK A01 T03340216  RH  050%=      5-min Rain = 0
KST2 210136Z 15011KT 33/22 A2969 RMK A01 T03340217  RH  050%=      5-min Rain = 0
KST2 210137Z 16011KT 33/22 A2969 RMK A01 T03330216  RH  050%=      5-min Rain = 0
KST2 210138Z 16011KT 33/22 A2969 RMK A01 T03330216  RH  050%=      5-min Rain = 0
KST2 210139Z 16010KT 33/22 A2969 RMK A01 T03330216  RH  050%=      5-min Rain = 0
KST2 210140Z 16011KT 33/22 A2969 RMK A01 T03330216  RH  050%=      5-min Rain = 0
KST2 210141Z 16010KT 33/22 A2969 RMK A01 T03330217  RH  051%=      5-min Rain = 0
KST2 210142Z 16011KT 33/22 A2969 RMK A01 T03330218  RH  051%=      5-min Rain = 0
KST2 210143Z 16011KT 33/22 A2969 RMK A01 T03320217  RH  051%=      5-min Rain = 0
KST2 210144Z 16011KT 33/22 A2969 RMK A01 T03320217  RH  051%=      5-min Rain = 0
KST2 210145Z 16010KT 33/22 A2969 RMK A01 T03310217  RH  051%=      5-min Rain = 0
KST2 210146Z 16011KT 33/22 A2969 RMK A01 T03310218  RH  052%=      5-min Rain = 0
KST2 210147Z 16011KT 33/22 A2969 RMK A01 T03300218  RH  052%=      5-min Rain = 0
KST2 210148Z 16011KT 33/22 A2969 RMK A01 T03290218  RH  052%=      5-min Rain = 0
KST2 210149Z 16012KT 33/22 A2969 RMK A01 T03290218  RH  052%=      5-min Rain = 0
KST2 210150Z 16012KT 33/22 A2969 RMK A01 T03290218  RH  052%=      5-min Rain = 0
KST2 210151Z 16011KT 33/22 A2969 RMK A01 T03290218  RH  052%=      5-min Rain = 0
KST2 210152Z 16011KT 33/22 A2969 RMK A01 T03280218  RH  052%=      5-min Rain = 0
KST2 210153Z 16012KT 33/22 A2969 RMK A01 T03280218  RH  052%=      5-min Rain = 0
KST2 210154Z 16012KT 33/22 A297 RMK A01 T03280218  RH  053%=      5-min Rain = 0
KST2 210155Z 16012KT 33/22 A297 RMK A01 T03280218  RH  053%=      5-min Rain = 0
KST2 210156Z 16012KT 33/22 A297 RMK A01 T03280218  RH  053%=      5-min Rain = 0
KST2 210157Z 16012KT 33/22 A297 RMK A01 T03280218  RH  053%=      5-min Rain = 0
KST2 210158Z 16011KT 33/22 A297 RMK A01 T03280219  RH  053%=      5-min Rain = 0
KST2 210159Z 16012KT 33/22 A297 RMK A01 T03270219  RH  053%=      5-min Rain = 0
KST2 210200Z 16011KT 33/22 A297 RMK A01 T03270219  RH  053%=      5-min Rain = 0
KST2 210201Z 16011KT 33/22 A297 RMK A01 T03270219  RH  053%=      5-min Rain = 0
KST2 210202Z 16011KT 33/22 A297 RMK A01 T03260219  RH  053%=      5-min Rain = 0
KST2 210203Z 15011KT 33/22 A297 RMK A01 T03250219  RH  054%=      5-min Rain = 0
KST2 210204Z 16011KT 33/22 A297 RMK A01 T03250219  RH  054%=      5-min Rain = 0
KST2 210205Z 15011KT 32/22 A297 RMK A01 T03240219  RH  054%=      5-min Rain = 0
KST2 210206Z 15010KT 32/22 A297 RMK A01 T03240219  RH  054%=      5-min Rain = 0
KST2 210207Z 15010KT 32/22 A297 RMK A01 T03230220  RH  054%=      5-min Rain = 0
KST2 210208Z 15010KT 32/22 A297 RMK A01 T03230220  RH  055%=      5-min Rain = 0
KST2 210209Z 15011KT 32/22 A297 RMK A01 T03220220  RH  055%=      5-min Rain = 0
KST2 210210Z 15010KT 32/22 A297 RMK A01 T03220220  RH  055%=      5-min Rain = 0
KST2 210211Z 15010KT 32/22 A297 RMK A01 T03210220  RH  055%=      5-min Rain = 0
KST2 210212Z 15010KT 32/22 A297 RMK A01 T03210220  RH  055%=      5-min Rain = 0
KST2 210213Z 15011KT 32/22 A297 RMK A01 T03200220  RH  056%=      5-min Rain = 0
KST2 210214Z 15010KT 32/22 A297 RMK A01 T03190220  RH  056%=      5-min Rain = 0
KST2 210215Z 15010KT 32/22 A297 RMK A01 T03190220  RH  056%=      5-min Rain = 0
KST2 210216Z 15010KT 32/22 A297 RMK A01 T03180220  RH  056%=      5-min Rain = 0
KST2 210217Z 15010KT 32/22 A297 RMK A01 T03170220  RH  056%=      5-min Rain = 0
KST2 210218Z 15009KT 32/22 A297 RMK A01 T03160220  RH  057%=      5-min Rain = 0
KST2 210219Z 15010KT 32/22 A297 RMK A01 T03160221  RH  057%=      5-min Rain = 0
KST2 210220Z 15010KT 32/22 A297 RMK A01 T03150220  RH  057%=      5-min Rain = 0
KST2 210221Z 15010KT 32/22 A297 RMK A01 T03150220  RH  057%=      5-min Rain = 0
KST2 210222Z 15010KT 31/22 A297 RMK A01 T03140221  RH  058%=      5-min Rain = 0
KST2 210223Z 15010KT 31/22 A297 RMK A01 T03130220  RH  058%=      5-min Rain = 0
KST2 210224Z 15010KT 31/22 A297 RMK A01 T03130221  RH  058%=      5-min Rain = 0
KST2 210225Z 15010KT 31/22 A297 RMK A01 T03120220  RH  058%=      5-min Rain = 0
KST2 210226Z 15010KT 31/22 A297 RMK A01 T03120220  RH  058%=      5-min Rain = 0
KST2 210227Z 15010KT 31/22 A297 RMK A01 T03120220  RH  058%=      5-min Rain = 0
KST2 210228Z 15010KT 31/22 A297 RMK A01 T03110220  RH  058%=      5-min Rain = 0
KST2 210229Z 15010KT 31/22 A297 RMK A01 T03110221  RH  058%=      5-min Rain = 0
KST2 210230Z 15010KT 31/22 A297 RMK A01 T03110221  RH  059%=      5-min Rain = 0
KST2 210231Z 15009KT 31/22 A297 RMK A01 T03110221  RH  059%=      5-min Rain = 0
KST2 210232Z 15010KT 31/22 A297 RMK A01 T03100220  RH  059%=      5-min Rain = 0
KST2 210233Z 15010KT 31/22 A297 RMK A01 T03100220  RH  059%=      5-min Rain = 0
KST2 210234Z 15011KT 31/22 A297 RMK A01 T03100221  RH  059%=      5-min Rain = 0
KST2 210235Z 15011KT 31/22 A297 RMK A01 T03100221  RH  059%=      5-min Rain = 0
KST2 210236Z 15010KT 31/22 A297 RMK A01 T03100221  RH  059%=      5-min Rain = 0
KST2 210237Z 15011KT 31/22 A297 RMK A01 T03100220  RH  059%=      5-min Rain = 0
KST2 210238Z 15011KT 31/22 A297 RMK A01 T03100220  RH  059%=      5-min Rain = 0
KST2 210239Z 15010KT 31/22 A297 RMK A01 T03100221  RH  059%=      5-min Rain = 0
KST2 210240Z 15011KT 31/22 A297 RMK A01 T03100221  RH  059%=      5-min Rain = 0
KST2 210241Z 15011KT 31/22 A297 RMK A01 T03100221  RH  059%=      5-min Rain = 0
KST2 210242Z 15010KT 31/22 A297 RMK A01 T03100222  RH  060%=      5-min Rain = 0
KST2 210243Z 15010KT 31/22 A297 RMK A01 T03100222  RH  060%=      5-min Rain = 0
KST2 210244Z 15010KT 31/22 A297 RMK A01 T03090222  RH  060%=      5-min Rain = 0
KST2 210245Z 15010KT 31/22 A297 RMK A01 T03090223  RH  060%=      5-min Rain = 0
KST2 210246Z 15010KT 31/22 A297 RMK A01 T03090223  RH  060%=      5-min Rain = 0
KST2 210247Z 15011KT 31/22 A297 RMK A01 T03080223  RH  060%=      5-min Rain = 0
KST2 210248Z 16010KT 31/22 A297 RMK A01 T03080223  RH  061%=      5-min Rain = 0
KST2 210249Z 16010KT 31/22 A297 RMK A01 T03080223  RH  061%=      5-min Rain = 0
KST2 210250Z 16011KT 31/22 A2971 RMK A01 T03080224  RH  061%=      5-min Rain = 0
KST2 210251Z 16010KT 31/23 A2971 RMK A01 T03080225  RH  061%=      5-min Rain = 0
KST2 210252Z 16012KT 31/23 A297 RMK A01 T03080225  RH  061%=      5-min Rain = 0
KST2 210253Z 16010KT 31/23 A2971 RMK A01 T03080225  RH  061%=      5-min Rain = 0
KST2 210254Z 16011KT 31/23 A2971 RMK A01 T03080226  RH  061%=      5-min Rain = 0
KST2 210255Z 16011KT 31/23 A2971 RMK A01 T03080226  RH  062%=      5-min Rain = 0
KST2 210256Z 16011KT 31/23 A2971 RMK A01 T03080226  RH  062%=      5-min Rain = 0
KST2 210257Z 16011KT 31/23 A2971 RMK A01 T03080227  RH  062%=      5-min Rain = 0
KST2 210258Z 16012KT 31/23 A2971 RMK A01 T03070227  RH  062%=      5-min Rain = 0
KST2 210259Z 16012KT 31/23 A2971 RMK A01 T03070227  RH  062%=      5-min Rain = 0
KST2 210300Z 16011KT 31/23 A2971 RMK A01 T03070228  RH  063%=      5-min Rain = 0
KST2 210301Z 16012KT 31/23 A2971 RMK A01 T03080228  RH  063%=      5-min Rain = 0
KST2 210302Z 16011KT 31/23 A2971 RMK A01 T03070228  RH  063%=      5-min Rain = 0
KST2 210303Z 16011KT 31/23 A2971 RMK A01 T03070228  RH  063%=      5-min Rain = 0
KST2 210304Z 16012KT 31/23 A2971 RMK A01 T03070229  RH  063%=      5-min Rain = 0
KST2 210305Z 16011KT 31/23 A2971 RMK A01 T03080229  RH  063%=      5-min Rain = 0
KST2 210306Z 16012KT 31/23 A2971 RMK A01 T03080229  RH  063%=      5-min Rain = 0
KST2 210307Z 16011KT 31/23 A2971 RMK A01 T03080229  RH  063%=      5-min Rain = 0
KST2 210308Z 16012KT 31/23 A2971 RMK A01 T03080229  RH  063%=      5-min Rain = 0
KST2 210309Z 16011KT 31/23 A2971 RMK A01 T03080229  RH  063%=      5-min Rain = 0
KST2 210310Z 16012KT 31/23 A2971 RMK A01 T03080229  RH  063%=      5-min Rain = 0
KST2 210311Z 16012KT 31/23 A2971 RMK A01 T03080229  RH  063%=      5-min Rain = 0
KST2 210312Z 16013KT 31/23 A2971 RMK A01 T03070229  RH  063%=      5-min Rain = 0
KST2 210313Z 17013KT 31/23 A2971 RMK A01 T03080229  RH  063%=      5-min Rain = 0
KST2 210314Z 17012KT 31/23 A2971 RMK A01 T03080229  RH  063%=      5-min Rain = 0
KST2 210315Z 16011KT 31/23 A2971 RMK A01 T03090229  RH  063%=      5-min Rain = 0
KST2 210316Z 16012KT 31/23 A2971 RMK A01 T03090230  RH  063%=      5-min Rain = 0
KST2 210317Z 17012KT 31/23 A2971 RMK A01 T03090229  RH  063%=      5-min Rain = 0
KST2 210318Z 16012KT 31/23 A2971 RMK A01 T03090229  RH  063%=      5-min Rain = 0
KST2 210319Z 17012KT 31/23 A2971 RMK A01 T03090229  RH  062%=      5-min Rain = 0
KST2 210320Z 16013KT 31/23 A2971 RMK A01 T03090229  RH  062%=      5-min Rain = 0
KST2 210321Z 16013KT 31/23 A2971 RMK A01 T03100229  RH  062%=      5-min Rain = 0
KST2 210322Z 16014KT 31/23 A2971 RMK A01 T03100229  RH  062%=      5-min Rain = 0
KST2 210323Z 16014KT 31/23 A2971 RMK A01 T03110229  RH  062%=      5-min Rain = 0
KST2 210324Z 16012KT 31/23 A2971 RMK A01 T03110229  RH  062%=      5-min Rain = 0
KST2 210325Z 16014KT 31/23 A2971 RMK A01 T03110229  RH  061%=      5-min Rain = 0
KST2 210326Z 17013KT 31/23 A2971 RMK A01 T03120229  RH  061%=      5-min Rain = 0
KST2 210327Z 16012KT 31/23 A2971 RMK A01 T03110229  RH  061%=      5-min Rain = 0
KST2 210328Z 16013KT 31/23 A2971 RMK A01 T03120229  RH  061%=      5-min Rain = 0
KST2 210329Z 16013KT 31/23 A2972 RMK A01 T03110229  RH  061%=      5-min Rain = 0
KST2 210330Z 16013KT 31/23 A2972 RMK A01 T03110229  RH  062%=      5-min Rain = 0
KST2 210331Z 16012KT 31/23 A2972 RMK A01 T03110228  RH  062%=      5-min Rain = 0
KST2 210332Z 16013KT 31/23 A2972 RMK A01 T03110229  RH  062%=      5-min Rain = 0
KST2 210333Z 16014KT 31/23 A2972 RMK A01 T03110228  RH  061%=      5-min Rain = 0
KST2 210334Z 16014KT 31/23 A2972 RMK A01 T03110228  RH  061%=      5-min Rain = 0
KST2 210335Z 16014KT 31/23 A2972 RMK A01 T03110228  RH  061%=      5-min Rain = 0
KST2 210336Z 16015KT 31/23 A2972 RMK A01 T03120227  RH  061%=      5-min Rain = 0
KST2 210337Z 16014KT 31/23 A2972 RMK A01 T03120227  RH  061%=      5-min Rain = 0
KST2 210338Z 16015KT 31/23 A2972 RMK A01 T03110227  RH  061%=      5-min Rain = 0
KST2 210339Z 17014KT 31/23 A2972 RMK A01 T03120227  RH  061%=      5-min Rain = 0
KST2 210340Z 16014KT 31/23 A2972 RMK A01 T03120227  RH  060%=      5-min Rain = 0
KST2 210341Z 16014KT 31/23 A2972 RMK A01 T03120227  RH  061%=      5-min Rain = 0
KST2 210342Z 17013KT 31/23 A2972 RMK A01 T03120227  RH  061%=      5-min Rain = 0
KST2 210343Z 17012G17KT 31/23 A2972 RMK A01 T03110227  RH  061%=      5-min Rain = 0
KST2 210344Z 17013KT 31/23 A2973 RMK A01 T03110227  RH  061%=      5-min Rain = 0
KST2 210345Z 17014KT 31/23 A2973 RMK A01 T03100227  RH  061%=      5-min Rain = 0
KST2 210346Z 17013KT 31/23 A2973 RMK A01 T03100227  RH  061%=      5-min Rain = 0
KST2 210347Z 17012KT 31/23 A2973 RMK A01 T03100227  RH  061%=      5-min Rain = 0
KST2 210348Z 17013KT 31/23 A2973 RMK A01 T03100227  RH  061%=      5-min Rain = 0
KST2 210349Z 17012KT 31/23 A2973 RMK A01 T03100227  RH  061%=      5-min Rain = 0
KST2 210350Z 17012KT 31/23 A2973 RMK A01 T03100227  RH  061%=      5-min Rain = 0
KST2 210351Z 17011KT 31/23 A2973 RMK A01 T03100227  RH  061%=      5-min Rain = 0
KST2 210352Z 17013KT 31/23 A2973 RMK A01 T03100227  RH  061%=      5-min Rain = 0
KST2 210353Z 17012KT 31/23 A2973 RMK A01 T03100227  RH  061%=      5-min Rain = 0
KST2 210354Z 17012KT 31/23 A2973 RMK A01 T03100227  RH  061%=      5-min Rain = 0
KST2 210355Z 17012KT 31/23 A2973 RMK A01 T03090227  RH  062%=      5-min Rain = 0
KST2 210356Z 17012KT 31/23 A2973 RMK A01 T03090227  RH  062%=      5-min Rain = 0
KST2 210357Z 17012KT 31/23 A2974 RMK A01 T03090227  RH  062%=      5-min Rain = 0
KST2 210358Z 17013KT 31/23 A2973 RMK A01 T03080227  RH  062%=      5-min Rain = 0
KST2 210359Z 17012KT 31/23 A2973 RMK A01 T03080227  RH  062%=      5-min Rain = 0
KST2 210400Z 17012KT 31/23 A2973 RMK A01 T03080227  RH  062%=      5-min Rain = 0
KST2 210401Z 17012KT 31/23 A2973 RMK A01 T03080227  RH  062%=      5-min Rain = 0
KST2 210402Z 16012KT 31/23 A2973 RMK A01 T03080227  RH  062%=      5-min Rain = 0
KST2 210403Z 17011KT 31/23 A2973 RMK A01 T03070227  RH  062%=      5-min Rain = 0
KST2 210404Z 17012KT 31/23 A2973 RMK A01 T03070227  RH  062%=      5-min Rain = 0
KST2 210405Z 17011KT 31/23 A2973 RMK A01 T03070227  RH  062%=      5-min Rain = 0
KST2 210406Z 16012KT 31/23 A2973 RMK A01 T03070227  RH  062%=      5-min Rain = 0
KST2 210407Z 16014KT 31/23 A2973 RMK A01 T03070226  RH  062%=      5-min Rain = 0
KST2 210408Z 16013KT 31/23 A2973 RMK A01 T03070226  RH  062%=      5-min Rain = 0
KST2 210409Z 16013KT 31/23 A2973 RMK A01 T03070226  RH  062%=      5-min Rain = 0
KST2 210410Z 17013KT 31/23 A2973 RMK A01 T03070226  RH  062%=      5-min Rain = 0
KST2 210411Z 17013KT 31/23 A2973 RMK A01 T03070226  RH  062%=      5-min Rain = 0
KST2 210412Z 17015KT 31/23 A2973 RMK A01 T03070225  RH  062%=      5-min Rain = 0
KST2 210413Z 17014KT 31/23 A2973 RMK A01 T03080225  RH  061%=      5-min Rain = 0
KST2 210414Z 17014G19KT 31/23 A2973 RMK A01 T03080225  RH  061%=      5-min Rain = 0
KST2 210415Z 17016KT 31/23 A2973 RMK A01 T03080225  RH  061%=      5-min Rain = 0
KST2 210416Z 17015KT 31/23 A2973 RMK A01 T03090225  RH  061%=      5-min Rain = 0
KST2 210417Z 17015KT 31/23 A2973 RMK A01 T03090225  RH  061%=      5-min Rain = 0
KST2 210418Z 17013KT 31/23 A2973 RMK A01 T03090225  RH  061%=      5-min Rain = 0
KST2 210419Z 17015KT 31/23 A2973 RMK A01 T03090225  RH  061%=      5-min Rain = 0
KST2 210420Z 17015KT 31/23 A2973 RMK A01 T03080225  RH  061%=      5-min Rain = 0
KST2 210421Z 17014KT 31/23 A2973 RMK A01 T03080225  RH  061%=      5-min Rain = 0
KST2 210422Z 17014KT 31/23 A2973 RMK A01 T03080225  RH  061%=      5-min Rain = 0
KST2 210423Z 17014KT 31/23 A2973 RMK A01 T03080225  RH  062%=      5-min Rain = 0
KST2 210424Z 17014KT 31/23 A2973 RMK A01 T03070226  RH  062%=      5-min Rain = 0
KST2 210425Z 17015KT 31/23 A2973 RMK A01 T03070225  RH  062%=      5-min Rain = 0
KST2 210426Z 17015KT 31/23 A2973 RMK A01 T03070225  RH  062%=      5-min Rain = 0
KST2 210427Z 17015KT 31/23 A2973 RMK A01 T03070225  RH  062%=      5-min Rain = 0
KST2 210428Z 17016KT 31/23 A2973 RMK A01 T03070225  RH  062%=      5-min Rain = 0
KST2 210429Z 17015KT 31/23 A2973 RMK A01 T03070225  RH  062%=      5-min Rain = 0
KST2 210430Z 17015KT 31/23 A2973 RMK A01 T03070225  RH  062%=      5-min Rain = 0
KST2 210431Z 17015KT 31/23 A2973 RMK A01 T03070225  RH  062%=      5-min Rain = 0
KST2 210432Z 17016KT 31/23 A2973 RMK A01 T03070225  RH  062%=      5-min Rain = 0
KST2 210433Z 18015KT 31/23 A2973 RMK A01 T03070225  RH  062%=      5-min Rain = 0
KST2 210434Z 18014KT 31/23 A2973 RMK A01 T03070225  RH  062%=      5-min Rain = 0
KST2 210435Z 18016KT 31/23 A2973 RMK A01 T03070225  RH  062%=      5-min Rain = 0
KST2 210436Z 18016KT 31/23 A2973 RMK A01 T03070225  RH  062%=      5-min Rain = 0
KST2 210437Z 18017KT 31/23 A2973 RMK A01 T03070225  RH  061%=      5-min Rain = 0
KST2 210438Z 18017KT 31/23 A2973 RMK A01 T03080225  RH  061%=      5-min Rain = 0
KST2 210439Z 18016KT 31/23 A2973 RMK A01 T03080225  RH  061%=      5-min Rain = 0
KST2 210440Z 18016KT 31/23 A2973 RMK A01 T03080225  RH  061%=      5-min Rain = 0
KST2 210441Z 18016KT 31/23 A2973 RMK A01 T03080225  RH  061%=      5-min Rain = 0
KST2 210442Z 18017KT 31/23 A2973 RMK A01 T03080225  RH  061%=      5-min Rain = 0
KST2 210443Z 18015KT 31/23 A2973 RMK A01 T03080225  RH  061%=      5-min Rain = 0
KST2 210444Z 18014KT 31/23 A2973 RMK A01 T03080225  RH  061%=      5-min Rain = 0
KST2 210445Z 18016KT 31/23 A2973 RMK A01 T03070225  RH  062%=      5-min Rain = 0
KST2 210446Z 18016KT 31/23 A2973 RMK A01 T03070225  RH  062%=      5-min Rain = 0
KST2 210447Z 17014KT 31/23 A2973 RMK A01 T03070225  RH  062%=      5-min Rain = 0
KST2 210448Z 18015KT 31/23 A2973 RMK A01 T03070226  RH  062%=      5-min Rain = 0
KST2 210449Z 18017KT 31/23 A2973 RMK A01 T03070225  RH  062%=      5-min Rain = 0
KST2 210450Z 17015KT 31/23 A2973 RMK A01 T03070226  RH  062%=      5-min Rain = 0
KST2 210451Z 17016KT 31/23 A2973 RMK A01 T03070226  RH  062%=      5-min Rain = 0
KST2 210452Z 18015KT 31/23 A2973 RMK A01 T03060226  RH  062%=      5-min Rain = 0
KST2 210453Z 18017KT 31/23 A2973 RMK A01 T03060226  RH  062%=      5-min Rain = 0
KST2 210454Z 18016KT 31/23 A2973 RMK A01 T03060226  RH  062%=      5-min Rain = 0
KST2 210455Z 18016KT 31/23 A2973 RMK A01 T03060226  RH  062%=      5-min Rain = 0
KST2 210456Z 18018KT 31/23 A2973 RMK A01 T03060227  RH  063%=      5-min Rain = 0
KST2 210457Z 18015KT 31/23 A2973 RMK A01 T03060227  RH  063%=      5-min Rain = 0
KST2 210458Z 18017KT 31/23 A2973 RMK A01 T03060227  RH  063%=      5-min Rain = 0
KST2 210459Z 18017KT 31/23 A2973 RMK A01 T03060227  RH  063%=      5-min Rain = 0

Page generated in 0.1193 seconds.